Eleven Point River (Missouri), Ravenden Springs (07072000)

StateMissouriLatestHigh (1840 cfs)
RiverEleven Point RiverRatingObservedEstimated
Updated2021-04-10 22:45 (41 minutes ago)Flood - The river is flooding. Obstacles can be treacherous or deadly. The river should be avoided at this stage for casual trips and definitely for the inexperienced. Trips should be attempted only with protective gear and equipment.Flood(none)3301
Discharge1840 cfs (median: 1390 cfs)High - The river is high and potentially dangerous, especially for the young and / or inexperienced. Normal stream obstacles are sometimes difficult to navigate. Extended distances can be attempted, but canoe travel may not be advisable.High(none)1442
Height4.82 feetGood - Conditions are ideal for a canoe or kayak. Boats typically will drag on fewer than one-quarter of riffles, if at all, and portages are unnecessary or rare. Normal float lengths can be attempted without a problem.Good(none)1037
TrendSteady (rising over 24 hours)Low - River is low but can still be floated. Some riffles are okay but most come with significant dragging and might need a portage. Float lengths should be reduced to accommodate low flow, dragging, and portages.Low(none)785
USGSExternal icon USGS Site (External icon Google Maps)Poor - River is too low to float comfortably. Most or all riffles will drag or must be portaged and some obstacles (such as slick shelf rock) cause undue problems. Avoid the river at this stage for casual paddling trips.Poor(none)418

Trending Data

Plot Image

Trips for Eleven Point River (Missouri), Ravenden Springs (07072000)

DateStartEndDistanceConditionDischargeHeightFishingDetails

A total of 0 rows are displayed.

Condition Descriptions

Fishing Conditions

Fish Species

Notes

Classic Trip List

The classic River Trips application is still available for use. It is updated with the new system using a data retrofit. It is no longer maintained. The original River Trips application is no longer updated (as of 1 Dec 2016) but can be checked for errors or for the condition of the data before it was converted to the new system.

Gauge Data Table

ObservationHeightDischargeMaximum
Discharge
Minimum
Discharge
Mean
Discharge
P05P10P20P25P50
(Median)
P75P80P90P95
2021-04-10 22:45 4.82 1840 9550 (2008) 420 (1981) 1740 530 754 858 924 1390 2020 2370 3040 4600
2021-04-10 21:45 4.82 1840 9550 (2008) 420 (1981) 1740 530 754 858 924 1390 2020 2370 3040 4600
2021-04-10 20:45 4.82 1840 9550 (2008) 420 (1981) 1740 530 754 858 924 1390 2020 2370 3040 4600
2021-04-10 19:45 4.83 1850 9550 (2008) 420 (1981) 1740 530 754 858 924 1390 2020 2370 3040 4600
2021-04-10 18:45 4.82 1840 9550 (2008) 420 (1981) 1740 530 754 858 924 1390 2020 2370 3040 4600
2021-04-10 17:45 4.82 1840 9550 (2008) 420 (1981) 1740 530 754 858 924 1390 2020 2370 3040 4600
2021-04-10 16:45 4.79 1820 9550 (2008) 420 (1981) 1740 530 754 858 924 1390 2020 2370 3040 4600
2021-04-10 15:45 4.77 1800 9550 (2008) 420 (1981) 1740 530 754 858 924 1390 2020 2370 3040 4600
2021-04-10 14:45 4.80 1830 9550 (2008) 420 (1981) 1740 530 754 858 924 1390 2020 2370 3040 4600
2021-04-10 13:45 4.79 1820 9550 (2008) 420 (1981) 1740 530 754 858 924 1390 2020 2370 3040 4600
2021-04-10 12:45 4.77 1800 9550 (2008) 420 (1981) 1740 530 754 858 924 1390 2020 2370 3040 4600
2021-04-10 11:45 4.79 1820 9550 (2008) 420 (1981) 1740 530 754 858 924 1390 2020 2370 3040 4600
2021-04-10 10:45 4.76 1800 9550 (2008) 420 (1981) 1740 530 754 858 924 1390 2020 2370 3040 4600
2021-04-10 09:45 4.79 1820 9550 (2008) 420 (1981) 1740 530 754 858 924 1390 2020 2370 3040 4600
2021-04-10 08:45 4.78 1810 9550 (2008) 420 (1981) 1740 530 754 858 924 1390 2020 2370 3040 4600
2021-04-10 07:45 4.79 1820 9550 (2008) 420 (1981) 1740 530 754 858 924 1390 2020 2370 3040 4600
2021-04-10 06:45 4.77 1800 9550 (2008) 420 (1981) 1740 530 754 858 924 1390 2020 2370 3040 4600
2021-04-10 05:45 4.78 1810 9550 (2008) 420 (1981) 1740 530 754 858 924 1390 2020 2370 3040 4600
2021-04-10 04:45 4.77 1800 9550 (2008) 420 (1981) 1740 530 754 858 924 1390 2020 2370 3040 4600
2021-04-10 03:45 4.73 1770 9550 (2008) 420 (1981) 1740 530 754 858 924 1390 2020 2370 3040 4600
2021-04-10 02:45 4.71 1760 9550 (2008) 420 (1981) 1740 530 754 858 924 1390 2020 2370 3040 4600
2021-04-10 01:45 4.72 1760 9550 (2008) 420 (1981) 1740 530 754 858 924 1390 2020 2370 3040 4600
2021-04-10 00:45 4.71 1760 9550 (2008) 420 (1981) 1740 530 754 858 924 1390 2020 2370 3040 4600
2021-04-09 23:45 4.71 1760 11100 (1942) 430 (1981) 1790 528 755 882 893 1390 2120 2300 2950 3800
2021-04-09 22:45 4.73 1770 11100 (1942) 430 (1981) 1790 528 755 882 893 1390 2120 2300 2950 3800
2021-04-09 21:45 4.72 1760 11100 (1942) 430 (1981) 1790 528 755 882 893 1390 2120 2300 2950 3800
2021-04-09 20:45 4.73 1770 11100 (1942) 430 (1981) 1790 528 755 882 893 1390 2120 2300 2950 3800
2021-04-09 19:45 4.74 1780 11100 (1942) 430 (1981) 1790 528 755 882 893 1390 2120 2300 2950 3800
2021-04-09 18:45 4.73 1770 11100 (1942) 430 (1981) 1790 528 755 882 893 1390 2120 2300 2950 3800
2021-04-09 17:45 4.74 1780 11100 (1942) 430 (1981) 1790 528 755 882 893 1390 2120 2300 2950 3800
2021-04-09 16:45 4.74 1780 11100 (1942) 430 (1981) 1790 528 755 882 893 1390 2120 2300 2950 3800
2021-04-09 15:45 4.74 1780 11100 (1942) 430 (1981) 1790 528 755 882 893 1390 2120 2300 2950 3800
2021-04-09 14:45 4.73 1770 11100 (1942) 430 (1981) 1790 528 755 882 893 1390 2120 2300 2950 3800
2021-04-09 13:45 4.73 1770 11100 (1942) 430 (1981) 1790 528 755 882 893 1390 2120 2300 2950 3800
2021-04-09 12:45 4.72 1760 11100 (1942) 430 (1981) 1790 528 755 882 893 1390 2120 2300 2950 3800
2021-04-09 11:45 4.75 1790 11100 (1942) 430 (1981) 1790 528 755 882 893 1390 2120 2300 2950 3800
2021-04-09 10:45 4.75 1790 11100 (1942) 430 (1981) 1790 528 755 882 893 1390 2120 2300 2950 3800
2021-04-09 08:30 4.76 1800 11100 (1942) 430 (1981) 1790 528 755 882 893 1390 2120 2300 2950 3800
2021-04-09 07:45 4.78 1810 11100 (1942) 430 (1981) 1790 528 755 882 893 1390 2120 2300 2950 3800
2021-04-09 06:45 4.77 1800 11100 (1942) 430 (1981) 1790 528 755 882 893 1390 2120 2300 2950 3800
2021-04-09 05:45 4.77 1800 11100 (1942) 430 (1981) 1790 528 755 882 893 1390 2120 2300 2950 3800
2021-04-09 04:45 4.78 1810 11100 (1942) 430 (1981) 1790 528 755 882 893 1390 2120 2300 2950 3800
2021-04-09 03:45 4.79 1820 11100 (1942) 430 (1981) 1790 528 755 882 893 1390 2120 2300 2950 3800
2021-04-09 02:45 4.80 1830 11100 (1942) 430 (1981) 1790 528 755 882 893 1390 2120 2300 2950 3800
2021-04-09 01:45 4.81 1840 11100 (1942) 430 (1981) 1790 528 755 882 893 1390 2120 2300 2950 3800
2021-04-09 00:45 4.81 1840 11100 (1942) 430 (1981) 1790 528 755 882 893 1390 2120 2300 2950 3800
2021-04-08 23:45 4.81 1840 7150 (1942) 434 (1981) 1740 535 774 895 927 1440 2260 2440 2900 3330
2021-04-08 22:45 4.82 1840 7150 (1942) 434 (1981) 1740 535 774 895 927 1440 2260 2440 2900 3330
2021-04-08 21:45 4.83 1850 7150 (1942) 434 (1981) 1740 535 774 895 927 1440 2260 2440 2900 3330
2021-04-08 20:45 4.84 1860 7150 (1942) 434 (1981) 1740 535 774 895 927 1440 2260 2440 2900 3330
2021-04-08 19:45 4.85 1870 7150 (1942) 434 (1981) 1740 535 774 895 927 1440 2260 2440 2900 3330
2021-04-08 18:45 4.86 1870 7150 (1942) 434 (1981) 1740 535 774 895 927 1440 2260 2440 2900 3330
2021-04-08 17:45 4.86 1870 7150 (1942) 434 (1981) 1740 535 774 895 927 1440 2260 2440 2900 3330
2021-04-08 16:45 4.86 1870 7150 (1942) 434 (1981) 1740 535 774 895 927 1440 2260 2440 2900 3330
2021-04-08 15:45 4.87 1880 7150 (1942) 434 (1981) 1740 535 774 895 927 1440 2260 2440 2900 3330
2021-04-08 14:45 4.88 1890 7150 (1942) 434 (1981) 1740 535 774 895 927 1440 2260 2440 2900 3330
2021-04-08 13:45 4.90 1910 7150 (1942) 434 (1981) 1740 535 774 895 927 1440 2260 2440 2900 3330
2021-04-08 12:45 4.91 1910 7150 (1942) 434 (1981) 1740 535 774 895 927 1440 2260 2440 2900 3330
2021-04-08 11:45 4.90 1910 7150 (1942) 434 (1981) 1740 535 774 895 927 1440 2260 2440 2900 3330
2021-04-08 10:45 4.91 1910 7150 (1942) 434 (1981) 1740 535 774 895 927 1440 2260 2440 2900 3330
2021-04-08 09:45 4.92 1920 7150 (1942) 434 (1981) 1740 535 774 895 927 1440 2260 2440 2900 3330
2021-04-08 08:45 4.92 1920 7150 (1942) 434 (1981) 1740 535 774 895 927 1440 2260 2440 2900 3330
2021-04-08 07:45 4.93 1930 7150 (1942) 434 (1981) 1740 535 774 895 927 1440 2260 2440 2900 3330
2021-04-08 06:45 4.95 1950 7150 (1942) 434 (1981) 1740 535 774 895 927 1440 2260 2440 2900 3330
2021-04-08 05:45 4.97 1960 7150 (1942) 434 (1981) 1740 535 774 895 927 1440 2260 2440 2900 3330
2021-04-08 04:45 4.98 1970 7150 (1942) 434 (1981) 1740 535 774 895 927 1440 2260 2440 2900 3330
2021-04-08 03:45 4.99 1980 7150 (1942) 434 (1981) 1740 535 774 895 927 1440 2260 2440 2900 3330
2021-04-08 02:45 5.00 1990 7150 (1942) 434 (1981) 1740 535 774 895 927 1440 2260 2440 2900 3330
2021-04-08 01:45 4.99 1980 7150 (1942) 434 (1981) 1740 535 774 895 927 1440 2260 2440 2900 3330
2021-04-08 00:45 4.97 1960 7150 (1942) 434 (1981) 1740 535 774 895 927 1440 2260 2440 2900 3330
2021-04-07 23:45 4.94 1940 4680 (2008) 445 (1981) 1620 535 696 871 905 1440 2140 2200 2780 3520
2021-04-07 22:45 4.90 1910 4680 (2008) 445 (1981) 1620 535 696 871 905 1440 2140 2200 2780 3520
2021-04-07 21:45 4.85 1870 4680 (2008) 445 (1981) 1620 535 696 871 905 1440 2140 2200 2780 3520
2021-04-07 20:45 4.81 1840 4680 (2008) 445 (1981) 1620 535 696 871 905 1440 2140 2200 2780 3520
2021-04-07 19:45 4.78 4680 (2008) 445 (1981) 1620 535 696 871 905 1440 2140 2200 2780 3520
2021-04-07 18:45 4.75 1790 4680 (2008) 445 (1981) 1620 535 696 871 905 1440 2140 2200 2780 3520
2021-04-07 17:45 4.75 1790 4680 (2008) 445 (1981) 1620 535 696 871 905 1440 2140 2200 2780 3520
2021-04-07 16:45 4.75 1790 4680 (2008) 445 (1981) 1620 535 696 871 905 1440 2140 2200 2780 3520
2021-04-07 15:45 4.75 1790 4680 (2008) 445 (1981) 1620 535 696 871 905 1440 2140 2200 2780 3520
2021-04-07 14:45 4.74 1780 4680 (2008) 445 (1981) 1620 535 696 871 905 1440 2140 2200 2780 3520
2021-04-07 13:45 4.73 1770 4680 (2008) 445 (1981) 1620 535 696 871 905 1440 2140 2200 2780 3520
2021-04-07 12:45 4.73 1770 4680 (2008) 445 (1981) 1620 535 696 871 905 1440 2140 2200 2780 3520
2021-04-07 11:45 4.74 1780 4680 (2008) 445 (1981) 1620 535 696 871 905 1440 2140 2200 2780 3520
2021-04-07 10:45 4.75 1790 4680 (2008) 445 (1981) 1620 535 696 871 905 1440 2140 2200 2780 3520
2021-04-07 09:30 4.74 1780 4680 (2008) 445 (1981) 1620 535 696 871 905 1440 2140 2200 2780 3520
2021-04-07 08:45 4.76 1800 4680 (2008) 445 (1981) 1620 535 696 871 905 1440 2140 2200 2780 3520
2021-04-07 07:45 4.73 1770 4680 (2008) 445 (1981) 1620 535 696 871 905 1440 2140 2200 2780 3520
2021-04-07 06:45 4.76 1800 4680 (2008) 445 (1981) 1620 535 696 871 905 1440 2140 2200 2780 3520
2021-04-07 05:45 4.76 1800 4680 (2008) 445 (1981) 1620 535 696 871 905 1440 2140 2200 2780 3520
2021-04-07 04:45 4.76 1800 4680 (2008) 445 (1981) 1620 535 696 871 905 1440 2140 2200 2780 3520
2021-04-07 03:45 4.76 1800 4680 (2008) 445 (1981) 1620 535 696 871 905 1440 2140 2200 2780 3520
2021-04-07 02:45 4.77 1800 4680 (2008) 445 (1981) 1620 535 696 871 905 1440 2140 2200 2780 3520
2021-04-07 01:45 4.78 1810 4680 (2008) 445 (1981) 1620 535 696 871 905 1440 2140 2200 2780 3520
2021-04-07 00:45 4.77 1800 4680 (2008) 445 (1981) 1620 535 696 871 905 1440 2140 2200 2780 3520
2021-04-06 23:45 4.77 1800 5760 (1957) 454 (1981) 1810 539 640 883 924 1490 2310 2630 3480 4790
2021-04-06 22:45 4.77 1800 5760 (1957) 454 (1981) 1810 539 640 883 924 1490 2310 2630 3480 4790
2021-04-06 21:45 4.78 1810 5760 (1957) 454 (1981) 1810 539 640 883 924 1490 2310 2630 3480 4790
2021-04-06 20:45 4.78 1810 5760 (1957) 454 (1981) 1810 539 640 883 924 1490 2310 2630 3480 4790
2021-04-06 19:45 4.78 1810 5760 (1957) 454 (1981) 1810 539 640 883 924 1490 2310 2630 3480 4790
2021-04-06 18:45 4.78 1810 5760 (1957) 454 (1981) 1810 539 640 883 924 1490 2310 2630 3480 4790
2021-04-06 17:45 4.77 1800 5760 (1957) 454 (1981) 1810 539 640 883 924 1490 2310 2630 3480 4790
2021-04-06 16:45 4.79 1820 5760 (1957) 454 (1981) 1810 539 640 883 924 1490 2310 2630 3480 4790
2021-04-06 15:45 4.76 1800 5760 (1957) 454 (1981) 1810 539 640 883 924 1490 2310 2630 3480 4790
2021-04-06 14:45 4.79 1820 5760 (1957) 454 (1981) 1810 539 640 883 924 1490 2310 2630 3480 4790
2021-04-06 13:45 4.76 1800 5760 (1957) 454 (1981) 1810 539 640 883 924 1490 2310 2630 3480 4790
2021-04-06 12:45 4.79 1820 5760 (1957) 454 (1981) 1810 539 640 883 924 1490 2310 2630 3480 4790
2021-04-06 11:45 4.75 1790 5760 (1957) 454 (1981) 1810 539 640 883 924 1490 2310 2630 3480 4790
2021-04-06 10:45 4.76 1800 5760 (1957) 454 (1981) 1810 539 640 883 924 1490 2310 2630 3480 4790
2021-04-06 09:45 4.77 1800 5760 (1957) 454 (1981) 1810 539 640 883 924 1490 2310 2630 3480 4790
2021-04-06 08:45 4.80 1830 5760 (1957) 454 (1981) 1810 539 640 883 924 1490 2310 2630 3480 4790
2021-04-06 07:45 4.80 1830 5760 (1957) 454 (1981) 1810 539 640 883 924 1490 2310 2630 3480 4790
2021-04-06 06:45 4.80 1830 5760 (1957) 454 (1981) 1810 539 640 883 924 1490 2310 2630 3480 4790
2021-04-06 05:45 4.81 1840 5760 (1957) 454 (1981) 1810 539 640 883 924 1490 2310 2630 3480 4790
2021-04-06 04:45 4.82 1840 5760 (1957) 454 (1981) 1810 539 640 883 924 1490 2310 2630 3480 4790
2021-04-06 03:45 4.81 1840 5760 (1957) 454 (1981) 1810 539 640 883 924 1490 2310 2630 3480 4790
2021-04-06 02:45 4.82 1840 5760 (1957) 454 (1981) 1810 539 640 883 924 1490 2310 2630 3480 4790
2021-04-06 01:45 4.82 1840 5760 (1957) 454 (1981) 1810 539 640 883 924 1490 2310 2630 3480 4790
2021-04-06 00:45 4.82 1840 5760 (1957) 454 (1981) 1810 539 640 883 924 1490 2310 2630 3480 4790
2021-04-05 23:45 4.82 1840 19800 (1957) 475 (1981) 2000 553 644 899 940 1400 2360 2500 3550 4780
2021-04-05 22:45 4.83 1850 19800 (1957) 475 (1981) 2000 553 644 899 940 1400 2360 2500 3550 4780
2021-04-05 21:45 4.83 1850 19800 (1957) 475 (1981) 2000 553 644 899 940 1400 2360 2500 3550 4780
2021-04-05 20:45 4.83 1850 19800 (1957) 475 (1981) 2000 553 644 899 940 1400 2360 2500 3550 4780
2021-04-05 19:45 4.83 1850 19800 (1957) 475 (1981) 2000 553 644 899 940 1400 2360 2500 3550 4780
2021-04-05 18:45 4.83 1850 19800 (1957) 475 (1981) 2000 553 644 899 940 1400 2360 2500 3550 4780
2021-04-05 17:45 4.84 1860 19800 (1957) 475 (1981) 2000 553 644 899 940 1400 2360 2500 3550 4780
2021-04-05 16:45 4.84 1860 19800 (1957) 475 (1981) 2000 553 644 899 940 1400 2360 2500 3550 4780
2021-04-05 15:45 4.83 1850 19800 (1957) 475 (1981) 2000 553 644 899 940 1400 2360 2500 3550 4780
2021-04-05 14:45 4.81 1840 19800 (1957) 475 (1981) 2000 553 644 899 940 1400 2360 2500 3550 4780
2021-04-05 13:45 4.84 1860 19800 (1957) 475 (1981) 2000 553 644 899 940 1400 2360 2500 3550 4780
2021-04-05 12:45 4.85 1870 19800 (1957) 475 (1981) 2000 553 644 899 940 1400 2360 2500 3550 4780
2021-04-05 11:45 4.84 1860 19800 (1957) 475 (1981) 2000 553 644 899 940 1400 2360 2500 3550 4780
2021-04-05 10:45 4.84 1860 19800 (1957) 475 (1981) 2000 553 644 899 940 1400 2360 2500 3550 4780
2021-04-05 09:45 4.83 1850 19800 (1957) 475 (1981) 2000 553 644 899 940 1400 2360 2500 3550 4780
2021-04-05 08:45 4.85 1870 19800 (1957) 475 (1981) 2000 553 644 899 940 1400 2360 2500 3550 4780
2021-04-05 07:45 4.85 1870 19800 (1957) 475 (1981) 2000 553 644 899 940 1400 2360 2500 3550 4780
2021-04-05 06:45 4.85 1870 19800 (1957) 475 (1981) 2000 553 644 899 940 1400 2360 2500 3550 4780
2021-04-05 05:45 4.86 1870 19800 (1957) 475 (1981) 2000 553 644 899 940 1400 2360 2500 3550 4780
2021-04-05 04:45 4.87 1880 19800 (1957) 475 (1981) 2000 553 644 899 940 1400 2360 2500 3550 4780
2021-04-05 03:45 4.87 1880 19800 (1957) 475 (1981) 2000 553 644 899 940 1400 2360 2500 3550 4780
2021-04-05 02:45 4.87 1880 19800 (1957) 475 (1981) 2000 553 644 899 940 1400 2360 2500 3550 4780
2021-04-05 01:45 4.87 1880 19800 (1957) 475 (1981) 2000 553 644 899 940 1400 2360 2500 3550 4780
2021-04-05 00:45 4.88 1890 19800 (1957) 475 (1981) 2000 553 644 899 940 1400 2360 2500 3550 4780
2021-04-04 23:45 4.88 1890 22200 (1957) 467 (1936) 2100 551 638 901 953 1380 2500 2600 3610 4700
2021-04-04 22:45 4.86 1870 22200 (1957) 467 (1936) 2100 551 638 901 953 1380 2500 2600 3610 4700
2021-04-04 21:45 4.88 1890 22200 (1957) 467 (1936) 2100 551 638 901 953 1380 2500 2600 3610 4700
2021-04-04 20:45 4.88 1890 22200 (1957) 467 (1936) 2100 551 638 901 953 1380 2500 2600 3610 4700
2021-04-04 19:45 4.88 1890 22200 (1957) 467 (1936) 2100 551 638 901 953 1380 2500 2600 3610 4700
2021-04-04 18:45 4.89 1900 22200 (1957) 467 (1936) 2100 551 638 901 953 1380 2500 2600 3610 4700
2021-04-04 17:45 4.89 1900 22200 (1957) 467 (1936) 2100 551 638 901 953 1380 2500 2600 3610 4700
2021-04-04 16:45 4.88 1890 22200 (1957) 467 (1936) 2100 551 638 901 953 1380 2500 2600 3610 4700
2021-04-04 15:45 4.88 1890 22200 (1957) 467 (1936) 2100 551 638 901 953 1380 2500 2600 3610 4700
2021-04-04 14:45 4.85 1870 22200 (1957) 467 (1936) 2100 551 638 901 953 1380 2500 2600 3610 4700
2021-04-04 13:45 4.86 1870 22200 (1957) 467 (1936) 2100 551 638 901 953 1380 2500 2600 3610 4700
2021-04-04 12:45 4.89 1900 22200 (1957) 467 (1936) 2100 551 638 901 953 1380 2500 2600 3610 4700
2021-04-04 11:45 4.89 1900 22200 (1957) 467 (1936) 2100 551 638 901 953 1380 2500 2600 3610 4700
2021-04-04 10:45 4.89 1900 22200 (1957) 467 (1936) 2100 551 638 901 953 1380 2500 2600 3610 4700
2021-04-04 09:45 4.90 1910 22200 (1957) 467 (1936) 2100 551 638 901 953 1380 2500 2600 3610 4700
2021-04-04 08:45 4.91 1910 22200 (1957) 467 (1936) 2100 551 638 901 953 1380 2500 2600 3610 4700
2021-04-04 07:45 4.91 1910 22200 (1957) 467 (1936) 2100 551 638 901 953 1380 2500 2600 3610 4700
2021-04-04 06:45 4.92 1920 22200 (1957) 467 (1936) 2100 551 638 901 953 1380 2500 2600 3610 4700
2021-04-04 05:45 4.92 1920 22200 (1957) 467 (1936) 2100 551 638 901 953 1380 2500 2600 3610 4700
2021-04-04 04:45 4.92 1920 22200 (1957) 467 (1936) 2100 551 638 901 953 1380 2500 2600 3610 4700
2021-04-04 03:45 4.93 1930 22200 (1957) 467 (1936) 2100 551 638 901 953 1380 2500 2600 3610 4700
2021-04-04 02:45 4.92 1920 22200 (1957) 467 (1936) 2100 551 638 901 953 1380 2500 2600 3610 4700
2021-04-04 01:45 4.92 1920 22200 (1957) 467 (1936) 2100 551 638 901 953 1380 2500 2600 3610 4700
2021-04-04 00:45 4.92 1920 22200 (1957) 467 (1936) 2100 551 638 901 953 1380 2500 2600 3610 4700
2021-04-03 23:45 4.93 1930 9860 (1945) 467 (1936) 1870 577 686 890 961 1340 2140 2330 3440 5630
2021-04-03 22:45 4.93 1930 9860 (1945) 467 (1936) 1870 577 686 890 961 1340 2140 2330 3440 5630
2021-04-03 21:45 4.94 1940 9860 (1945) 467 (1936) 1870 577 686 890 961 1340 2140 2330 3440 5630
2021-04-03 20:45 4.94 1940 9860 (1945) 467 (1936) 1870 577 686 890 961 1340 2140 2330 3440 5630
2021-04-03 19:45 4.94 1940 9860 (1945) 467 (1936) 1870 577 686 890 961 1340 2140 2330 3440 5630
2021-04-03 18:45 4.92 1920 9860 (1945) 467 (1936) 1870 577 686 890 961 1340 2140 2330 3440 5630
2021-04-03 17:45 4.92 1920 9860 (1945) 467 (1936) 1870 577 686 890 961 1340 2140 2330 3440 5630
2021-04-03 16:45 4.94 1940 9860 (1945) 467 (1936) 1870 577 686 890 961 1340 2140 2330 3440 5630
2021-04-03 15:45 4.95 1950 9860 (1945) 467 (1936) 1870 577 686 890 961 1340 2140 2330 3440 5630
2021-04-03 14:45 4.95 1950 9860 (1945) 467 (1936) 1870 577 686 890 961 1340 2140 2330 3440 5630
2021-04-03 13:45 4.94 1940 9860 (1945) 467 (1936) 1870 577 686 890 961 1340 2140 2330 3440 5630
2021-04-03 12:45 4.95 1950 9860 (1945) 467 (1936) 1870 577 686 890 961 1340 2140 2330 3440 5630
2021-04-03 11:45 4.95 1950 9860 (1945) 467 (1936) 1870 577 686 890 961 1340 2140 2330 3440 5630
2021-04-03 10:45 4.96 1960 9860 (1945) 467 (1936) 1870 577 686 890 961 1340 2140 2330 3440 5630
2021-04-03 09:45 4.97 1960 9860 (1945) 467 (1936) 1870 577 686 890 961 1340 2140 2330 3440 5630
2021-04-03 08:45 4.96 1960 9860 (1945) 467 (1936) 1870 577 686 890 961 1340 2140 2330 3440 5630
2021-04-03 07:45 4.97 1960 9860 (1945) 467 (1936) 1870 577 686 890 961 1340 2140 2330 3440 5630
2021-04-03 06:45 4.98 1970 9860 (1945) 467 (1936) 1870 577 686 890 961 1340 2140 2330 3440 5630
2021-04-03 05:45 4.98 1970 9860 (1945) 467 (1936) 1870 577 686 890 961 1340 2140 2330 3440 5630
2021-04-03 04:45 4.98 1970 9860 (1945) 467 (1936) 1870 577 686 890 961 1340 2140 2330 3440 5630
2021-04-03 03:45 4.99 1980 9860 (1945) 467 (1936) 1870 577 686 890 961 1340 2140 2330 3440 5630
2021-04-03 02:45 5.00 1990 9860 (1945) 467 (1936) 1870 577 686 890 961 1340 2140 2330 3440 5630
2021-04-03 01:45 4.99 1980 9860 (1945) 467 (1936) 1870 577 686 890 961 1340 2140 2330 3440 5630
2021-04-03 00:45 5.00 1990 9860 (1945) 467 (1936) 1870 577 686 890 961 1340 2140 2330 3440 5630
2021-04-02 23:45 5.00 1990 11800 (1945) 411 (1941) 1900 503 671 878 927 1340 1990 2170 3640 5900
2021-04-02 22:45 5.01 2000 11800 (1945) 411 (1941) 1900 503 671 878 927 1340 1990 2170 3640 5900
2021-04-02 21:45 5.01 2000 11800 (1945) 411 (1941) 1900 503 671 878 927 1340 1990 2170 3640 5900
2021-04-02 20:45 5.00 1990 11800 (1945) 411 (1941) 1900 503 671 878 927 1340 1990 2170 3640 5900
2021-04-02 19:45 5.02 2000 11800 (1945) 411 (1941) 1900 503 671 878 927 1340 1990 2170 3640 5900
2021-04-02 18:45 5.03 2010 11800 (1945) 411 (1941) 1900 503 671 878 927 1340 1990 2170 3640 5900
2021-04-02 17:45 5.03 2010 11800 (1945) 411 (1941) 1900 503 671 878 927 1340 1990 2170 3640 5900
2021-04-02 16:45 5.01 2000 11800 (1945) 411 (1941) 1900 503 671 878 927 1340 1990 2170 3640 5900
2021-04-02 15:45 4.98 1970 11800 (1945) 411 (1941) 1900 503 671 878 927 1340 1990 2170 3640 5900
2021-04-02 14:45 5.04 2020 11800 (1945) 411 (1941) 1900 503 671 878 927 1340 1990 2170 3640 5900
2021-04-02 13:45 5.03 2010 11800 (1945) 411 (1941) 1900 503 671 878 927 1340 1990 2170 3640 5900
2021-04-02 12:45 5.03 2010 11800 (1945) 411 (1941) 1900 503 671 878 927 1340 1990 2170 3640 5900
2021-04-02 11:45 5.04 2020 11800 (1945) 411 (1941) 1900 503 671 878 927 1340 1990 2170 3640 5900
2021-04-02 10:45 5.04 2020 11800 (1945) 411 (1941) 1900 503 671 878 927 1340 1990 2170 3640 5900
2021-04-02 09:45 5.04 2020 11800 (1945) 411 (1941) 1900 503 671 878 927 1340 1990 2170 3640 5900
2021-04-02 08:45 5.05 2030 11800 (1945) 411 (1941) 1900 503 671 878 927 1340 1990 2170 3640 5900
2021-04-02 07:45 5.06 2040 11800 (1945) 411 (1941) 1900 503 671 878 927 1340 1990 2170 3640 5900
2021-04-02 06:45 5.07 2040 11800 (1945) 411 (1941) 1900 503 671 878 927 1340 1990 2170 3640 5900
2021-04-02 05:45 5.08 2050 11800 (1945) 411 (1941) 1900 503 671 878 927 1340 1990 2170 3640 5900
2021-04-02 04:45 5.08 2050 11800 (1945) 411 (1941) 1900 503 671 878 927 1340 1990 2170 3640 5900
2021-04-02 03:45 5.09 2060 11800 (1945) 411 (1941) 1900 503 671 878 927 1340 1990 2170 3640 5900
2021-04-02 02:45 5.09 2060 11800 (1945) 411 (1941) 1900 503 671 878 927 1340 1990 2170 3640 5900
2021-04-02 01:45 5.09 2060 11800 (1945) 411 (1941) 1900 503 671 878 927 1340 1990 2170 3640 5900
2021-04-02 00:45 5.10 2070 11800 (1945) 411 (1941) 1900 503 671 878 927 1340 1990 2170 3640 5900
2021-04-01 23:45 5.11 2080 14600 (1985) 411 (1941) 2150 508 704 936 950 1400 2170 2550 4170 7960
2021-04-01 22:45 5.12 2090 14600 (1985) 411 (1941) 2150 508 704 936 950 1400 2170 2550 4170 7960
2021-04-01 21:45 5.13 2090 14600 (1985) 411 (1941) 2150 508 704 936 950 1400 2170 2550 4170 7960
2021-04-01 20:45 5.13 2090 14600 (1985) 411 (1941) 2150 508 704 936 950 1400 2170 2550 4170 7960
2021-04-01 19:45 5.14 2100 14600 (1985) 411 (1941) 2150 508 704 936 950 1400 2170 2550 4170 7960
2021-04-01 18:45 5.15 2110 14600 (1985) 411 (1941) 2150 508 704 936 950 1400 2170 2550 4170 7960
2021-04-01 17:45 5.16 2120 14600 (1985) 411 (1941) 2150 508 704 936 950 1400 2170 2550 4170 7960
2021-04-01 16:45 5.17 2130 14600 (1985) 411 (1941) 2150 508 704 936 950 1400 2170 2550 4170 7960
2021-04-01 15:45 5.17 2130 14600 (1985) 411 (1941) 2150 508 704 936 950 1400 2170 2550 4170 7960
2021-04-01 14:45 5.18 2130 14600 (1985) 411 (1941) 2150 508 704 936 950 1400 2170 2550 4170 7960
2021-04-01 13:45 5.16 2120 14600 (1985) 411 (1941) 2150 508 704 936 950 1400 2170 2550 4170 7960
2021-04-01 12:45 5.17 2130 14600 (1985) 411 (1941) 2150 508 704 936 950 1400 2170 2550 4170 7960
2021-04-01 11:45 5.18 2130 14600 (1985) 411 (1941) 2150 508 704 936 950 1400 2170 2550 4170 7960
2021-04-01 10:45 5.18 2130 14600 (1985) 411 (1941) 2150 508 704 936 950 1400 2170 2550 4170 7960
2021-04-01 09:45 5.19 2140 14600 (1985) 411 (1941) 2150 508 704 936 950 1400 2170 2550 4170 7960
2021-04-01 08:45 5.20 2150 14600 (1985) 411 (1941) 2150 508 704 936 950 1400 2170 2550 4170 7960
2021-04-01 07:45 5.20 2150 14600 (1985) 411 (1941) 2150 508 704 936 950 1400 2170 2550 4170 7960
2021-04-01 06:45 5.21 2160 14600 (1985) 411 (1941) 2150 508 704 936 950 1400 2170 2550 4170 7960
2021-04-01 05:45 5.22 2170 14600 (1985) 411 (1941) 2150 508 704 936 950 1400 2170 2550 4170 7960
2021-04-01 04:45 5.23 2180 14600 (1985) 411 (1941) 2150 508 704 936 950 1400 2170 2550 4170 7960
2021-04-01 03:45 5.24 2180 14600 (1985) 411 (1941) 2150 508 704 936 950 1400 2170 2550 4170 7960
2021-04-01 02:45 5.24 2180 14600 (1985) 411 (1941) 2150 508 704 936 950 1400 2170 2550 4170 7960
2021-04-01 01:45 5.26 2200 14600 (1985) 411 (1941) 2150 508 704 936 950 1400 2170 2550 4170 7960
2021-04-01 00:45 5.26 2200 14600 (1985) 411 (1941) 2150 508 704 936 950 1400 2170 2550 4170 7960
2021-03-31 23:45 5.28 2220 21100 (1945) 437 (1941) 2430 507 685 915 955 1440 2360 2570 5250 8510
2021-03-31 22:45 5.28 2220 21100 (1945) 437 (1941) 2430 507 685 915 955 1440 2360 2570 5250 8510
2021-03-31 21:45 5.29 2230 21100 (1945) 437 (1941) 2430 507 685 915 955 1440 2360 2570 5250 8510
2021-03-31 20:45 5.30 2230 21100 (1945) 437 (1941) 2430 507 685 915 955 1440 2360 2570 5250 8510
2021-03-31 19:45 5.31 2240 21100 (1945) 437 (1941) 2430 507 685 915 955 1440 2360 2570 5250 8510
2021-03-31 18:45 5.33 2260 21100 (1945) 437 (1941) 2430 507 685 915 955 1440 2360 2570 5250 8510
2021-03-31 17:45 5.33 2260 21100 (1945) 437 (1941) 2430 507 685 915 955 1440 2360 2570 5250 8510
2021-03-31 16:45 5.32 2250 21100 (1945) 437 (1941) 2430 507 685 915 955 1440 2360 2570 5250 8510
2021-03-31 15:45 5.36 2290 21100 (1945) 437 (1941) 2430 507 685 915 955 1440 2360 2570 5250 8510
2021-03-31 14:45 5.34 2270 21100 (1945) 437 (1941) 2430 507 685 915 955 1440 2360 2570 5250 8510
2021-03-31 13:45 5.35 2280 21100 (1945) 437 (1941) 2430 507 685 915 955 1440 2360 2570 5250 8510
2021-03-31 12:45 5.37 2290 21100 (1945) 437 (1941) 2430 507 685 915 955 1440 2360 2570 5250 8510
2021-03-31 11:45 5.37 2290 21100 (1945) 437 (1941) 2430 507 685 915 955 1440 2360 2570 5250 8510
2021-03-31 10:45 5.39 2310 21100 (1945) 437 (1941) 2430 507 685 915 955 1440 2360 2570 5250 8510
2021-03-31 09:45 5.38 2300 21100 (1945) 437 (1941) 2430 507 685 915 955 1440 2360 2570 5250 8510
2021-03-31 08:45 5.39 2310 21100 (1945) 437 (1941) 2430 507 685 915 955 1440 2360 2570 5250 8510
2021-03-31 07:45 5.39 2310 21100 (1945) 437 (1941) 2430 507 685 915 955 1440 2360 2570 5250 8510
2021-03-31 06:45 5.41 2330 21100 (1945) 437 (1941) 2430 507 685 915 955 1440 2360 2570 5250 8510
2021-03-31 05:45 5.42 2340 21100 (1945) 437 (1941) 2430 507 685 915 955 1440 2360 2570 5250 8510
2021-03-31 04:45 5.41 2330 21100 (1945) 437 (1941) 2430 507 685 915 955 1440 2360 2570 5250 8510
2021-03-31 03:45 5.42 2340 21100 (1945) 437 (1941) 2430 507 685 915 955 1440 2360 2570 5250 8510
2021-03-31 02:45 5.42 2340 21100 (1945) 437 (1941) 2430 507 685 915 955 1440 2360 2570 5250 8510
2021-03-31 01:45 5.43 2340 21100 (1945) 437 (1941) 2430 507 685 915 955 1440 2360 2570 5250 8510
2021-03-31 00:45 5.43 2340 21100 (1945) 437 (1941) 2430 507 685 915 955 1440 2360 2570 5250 8510
2021-03-30 23:45 5.42 2340 12500 (1938) 406 (1941) 2150 464 690 921 970 1430 2230 2640 4350 7540
2021-03-30 22:45 5.44 2350 12500 (1938) 406 (1941) 2150 464 690 921 970 1430 2230 2640 4350 7540
2021-03-30 21:45 5.44 2350 12500 (1938) 406 (1941) 2150 464 690 921 970 1430 2230 2640 4350 7540
2021-03-30 20:45 5.44 2350 12500 (1938) 406 (1941) 2150 464 690 921 970 1430 2230 2640 4350 7540
2021-03-30 19:45 5.44 2350 12500 (1938) 406 (1941) 2150 464 690 921 970 1430 2230 2640 4350 7540
2021-03-30 18:45 5.44 2350 12500 (1938) 406 (1941) 2150 464 690 921 970 1430 2230 2640 4350 7540
2021-03-30 17:45 5.44 2350 12500 (1938) 406 (1941) 2150 464 690 921 970 1430 2230 2640 4350 7540
2021-03-30 16:45 5.45 2360 12500 (1938) 406 (1941) 2150 464 690 921 970 1430 2230 2640 4350 7540
2021-03-30 15:45 5.46 2370 12500 (1938) 406 (1941) 2150 464 690 921 970 1430 2230 2640 4350 7540
2021-03-30 14:45 5.45 2360 12500 (1938) 406 (1941) 2150 464 690 921 970 1430 2230 2640 4350 7540
2021-03-30 13:45 5.44 2350 12500 (1938) 406 (1941) 2150 464 690 921 970 1430 2230 2640 4350 7540
2021-03-30 12:45 5.44 2350 12500 (1938) 406 (1941) 2150 464 690 921 970 1430 2230 2640 4350 7540
2021-03-30 11:45 5.44 2350 12500 (1938) 406 (1941) 2150 464 690 921 970 1430 2230 2640 4350 7540
2021-03-30 10:45 5.46 2370 12500 (1938) 406 (1941) 2150 464 690 921 970 1430 2230 2640 4350 7540
2021-03-30 09:45 5.45 2360 12500 (1938) 406 (1941) 2150 464 690 921 970 1430 2230 2640 4350 7540
2021-03-30 08:45 5.46 2370 12500 (1938) 406 (1941) 2150 464 690 921 970 1430 2230 2640 4350 7540
2021-03-30 07:45 5.46 2370 12500 (1938) 406 (1941) 2150 464 690 921 970 1430 2230 2640 4350 7540
2021-03-30 06:45 5.48 2390 12500 (1938) 406 (1941) 2150 464 690 921 970 1430 2230 2640 4350 7540
2021-03-30 05:45 5.48 2390 12500 (1938) 406 (1941) 2150 464 690 921 970 1430 2230 2640 4350 7540
2021-03-30 04:45 5.48 2390 12500 (1938) 406 (1941) 2150 464 690 921 970 1430 2230 2640 4350 7540
2021-03-30 03:45 5.49 2400 12500 (1938) 406 (1941) 2150 464 690 921 970 1430 2230 2640 4350 7540
2021-03-30 02:45 5.50 2400 12500 (1938) 406 (1941) 2150 464 690 921 970 1430 2230 2640 4350 7540
2021-03-30 01:45 5.51 2410 12500 (1938) 406 (1941) 2150 464 690 921 970 1430 2230 2640 4350 7540
2021-03-30 00:45 5.51 2410 12500 (1938) 406 (1941) 2150 464 690 921 970 1430 2230 2640 4350 7540
2021-03-29 23:45 5.51 2410 17300 (1977) 389 (1981) 2030 473 683 952 976 1360 2240 2360 2970 4430
2021-03-29 22:45 5.52 2420 17300 (1977) 389 (1981) 2030 473 683 952 976 1360 2240 2360 2970 4430
2021-03-29 21:45 5.53 2430 17300 (1977) 389 (1981) 2030 473 683 952 976 1360 2240 2360 2970 4430
2021-03-29 20:45 5.53 2430 17300 (1977) 389 (1981) 2030 473 683 952 976 1360 2240 2360 2970 4430
2021-03-29 19:45 5.54 2440 17300 (1977) 389 (1981) 2030 473 683 952 976 1360 2240 2360 2970 4430
2021-03-29 18:45 5.56 2460 17300 (1977) 389 (1981) 2030 473 683 952 976 1360 2240 2360 2970 4430
2021-03-29 17:45 5.54 2440 17300 (1977) 389 (1981) 2030 473 683 952 976 1360 2240 2360 2970 4430
2021-03-29 16:45 5.54 2440 17300 (1977) 389 (1981) 2030 473 683 952 976 1360 2240 2360 2970 4430
2021-03-29 15:45 5.57 2460 17300 (1977) 389 (1981) 2030 473 683 952 976 1360 2240 2360 2970 4430
2021-03-29 14:45 5.58 2470 17300 (1977) 389 (1981) 2030 473 683 952 976 1360 2240 2360 2970 4430
2021-03-29 13:45 5.56 2460 17300 (1977) 389 (1981) 2030 473 683 952 976 1360 2240 2360 2970 4430
2021-03-29 12:45 5.60 2490 17300 (1977) 389 (1981) 2030 473 683 952 976 1360 2240 2360 2970 4430
2021-03-29 11:45 5.59 2480 17300 (1977) 389 (1981) 2030 473 683 952 976 1360 2240 2360 2970 4430
2021-03-29 10:45 5.60 2490 17300 (1977) 389 (1981) 2030 473 683 952 976 1360 2240 2360 2970 4430
2021-03-29 09:45 5.62 2510 17300 (1977) 389 (1981) 2030 473 683 952 976 1360 2240 2360 2970 4430
2021-03-29 08:45 5.63 2520 17300 (1977) 389 (1981) 2030 473 683 952 976 1360 2240 2360 2970 4430
2021-03-29 07:45 5.65 2530 17300 (1977) 389 (1981) 2030 473 683 952 976 1360 2240 2360 2970 4430
2021-03-29 06:45 5.66 2540 17300 (1977) 389 (1981) 2030 473 683 952 976 1360 2240 2360 2970 4430
2021-03-29 05:45 5.67 2550 17300 (1977) 389 (1981) 2030 473 683 952 976 1360 2240 2360 2970 4430
2021-03-29 04:45 5.67 2550 17300 (1977) 389 (1981) 2030 473 683 952 976 1360 2240 2360 2970 4430
2021-03-29 03:45 5.69 2570 17300 (1977) 389 (1981) 2030 473 683 952 976 1360 2240 2360 2970 4430
2021-03-29 02:45 5.70 2580 17300 (1977) 389 (1981) 2030 473 683 952 976 1360 2240 2360 2970 4430
2021-03-29 01:45 5.71 2590 17300 (1977) 389 (1981) 2030 473 683 952 976 1360 2240 2360 2970 4430
2021-03-29 00:45 5.72 2590 17300 (1977) 389 (1981) 2030 473 683 952 976 1360 2240 2360 2970 4430
2021-03-28 23:45 5.73 2600 27800 (1977) 379 (1981) 2020 486 631 952 1000 1340 2000 2340 3150 4380
2021-03-28 22:45 5.73 2600 27800 (1977) 379 (1981) 2020 486 631 952 1000 1340 2000 2340 3150 4380
2021-03-28 21:45 5.75 2620 27800 (1977) 379 (1981) 2020 486 631 952 1000 1340 2000 2340 3150 4380
2021-03-28 20:45 5.76 2630 27800 (1977) 379 (1981) 2020 486 631 952 1000 1340 2000 2340 3150 4380
2021-03-28 19:45 5.76 2630 27800 (1977) 379 (1981) 2020 486 631 952 1000 1340 2000 2340 3150 4380
2021-03-28 18:45 5.78 2650 27800 (1977) 379 (1981) 2020 486 631 952 1000 1340 2000 2340 3150 4380
2021-03-28 17:45 5.80 2660 27800 (1977) 379 (1981) 2020 486 631 952 1000 1340 2000 2340 3150 4380
2021-03-28 16:45 5.81 2670 27800 (1977) 379 (1981) 2020 486 631 952 1000 1340 2000 2340 3150 4380
2021-03-28 15:45 5.81 2670 27800 (1977) 379 (1981) 2020 486 631 952 1000 1340 2000 2340 3150 4380
2021-03-28 14:45 5.82 2680 27800 (1977) 379 (1981) 2020 486 631 952 1000 1340 2000 2340 3150 4380
2021-03-28 13:45 5.83 2690 27800 (1977) 379 (1981) 2020 486 631 952 1000 1340 2000 2340 3150 4380
2021-03-28 12:45 5.83 2690 27800 (1977) 379 (1981) 2020 486 631 952 1000 1340 2000 2340 3150 4380
2021-03-28 11:45 5.85 2710 27800 (1977) 379 (1981) 2020 486 631 952 1000 1340 2000 2340 3150 4380
2021-03-28 10:45 5.84 2700 27800 (1977) 379 (1981) 2020 486 631 952 1000 1340 2000 2340 3150 4380
2021-03-28 09:45 5.87 2730 27800 (1977) 379 (1981) 2020 486 631 952 1000 1340 2000 2340 3150 4380
2021-03-28 08:45 5.82 2680 27800 (1977) 379 (1981) 2020 486 631 952 1000 1340 2000 2340 3150 4380
2021-03-28 07:45 5.88 2740 27800 (1977) 379 (1981) 2020 486 631 952 1000 1340 2000 2340 3150 4380
2021-03-28 06:45 5.89 2740 27800 (1977) 379 (1981) 2020 486 631 952 1000 1340 2000 2340 3150 4380
2021-03-28 05:45 5.91 2760 27800 (1977) 379 (1981) 2020 486 631 952 1000 1340 2000 2340 3150 4380
2021-03-28 04:45 5.91 2760 27800 (1977) 379 (1981) 2020 486 631 952 1000 1340 2000 2340 3150 4380
2021-03-28 03:45 5.90 2750 27800 (1977) 379 (1981) 2020 486 631 952 1000 1340 2000 2340 3150 4380
2021-03-28 02:45 5.92 2770 27800 (1977) 379 (1981) 2020 486 631 952 1000 1340 2000 2340 3150 4380
2021-03-28 01:45 5.93 2780 27800 (1977) 379 (1981) 2020 486 631 952 1000 1340 2000 2340 3150 4380
2021-03-28 00:45 5.93 2780 27800 (1977) 379 (1981) 2020 486 631 952 1000 1340 2000 2340 3150 4380
2021-03-27 23:45 5.93 2780 8010 (1949) 380 (1981) 1750 495 645 969 1000 1360 2060 2370 3120 4350
2021-03-27 22:45 5.95 2800 8010 (1949) 380 (1981) 1750 495 645 969 1000 1360 2060 2370 3120 4350
2021-03-27 21:45 5.95 2800 8010 (1949) 380 (1981) 1750 495 645 969 1000 1360 2060 2370 3120 4350
2021-03-27 20:45 5.95 2800 8010 (1949) 380 (1981) 1750 495 645 969 1000 1360 2060 2370 3120 4350
2021-03-27 19:45 5.97 2820 8010 (1949) 380 (1981) 1750 495 645 969 1000 1360 2060 2370 3120 4350
2021-03-27 18:45 5.96 2810 8010 (1949) 380 (1981) 1750 495 645 969 1000 1360 2060 2370 3120 4350
2021-03-27 17:45 5.97 2820 8010 (1949) 380 (1981) 1750 495 645 969 1000 1360 2060 2370 3120 4350
2021-03-27 16:45 5.99 2830 8010 (1949) 380 (1981) 1750 495 645 969 1000 1360 2060 2370 3120 4350
2021-03-27 15:45 5.96 2810 8010 (1949) 380 (1981) 1750 495 645 969 1000 1360 2060 2370 3120 4350
2021-03-27 14:45 6.00 2840 8010 (1949) 380 (1981) 1750 495 645 969 1000 1360 2060 2370 3120 4350
2021-03-27 13:45 5.98 2820 8010 (1949) 380 (1981) 1750 495 645 969 1000 1360 2060 2370 3120 4350
2021-03-27 12:45 6.01 2850 8010 (1949) 380 (1981) 1750 495 645 969 1000 1360 2060 2370 3120 4350
2021-03-27 11:45 6.01 2850 8010 (1949) 380 (1981) 1750 495 645 969 1000 1360 2060 2370 3120 4350
2021-03-27 10:45 6.02 2860 8010 (1949) 380 (1981) 1750 495 645 969 1000 1360 2060 2370 3120 4350
2021-03-27 09:45 6.03 2870 8010 (1949) 380 (1981) 1750 495 645 969 1000 1360 2060 2370 3120 4350
2021-03-27 08:45 6.03 2870 8010 (1949) 380 (1981) 1750 495 645 969 1000 1360 2060 2370 3120 4350
2021-03-27 07:45 6.04 2880 8010 (1949) 380 (1981) 1750 495 645 969 1000 1360 2060 2370 3120 4350
2021-03-27 06:45 6.04 2880 8010 (1949) 380 (1981) 1750 495 645 969 1000 1360 2060 2370 3120 4350
2021-03-27 05:45 6.04 2880 8010 (1949) 380 (1981) 1750 495 645 969 1000 1360 2060 2370 3120 4350
2021-03-27 04:45 6.04 2880 8010 (1949) 380 (1981) 1750 495 645 969 1000 1360 2060 2370 3120 4350
2021-03-27 03:45 6.02 2860 8010 (1949) 380 (1981) 1750 495 645 969 1000 1360 2060 2370 3120 4350
2021-03-27 02:45 6.00 2840 8010 (1949) 380 (1981) 1750 495 645 969 1000 1360 2060 2370 3120 4350
2021-03-27 01:45 6.01 2850 8010 (1949) 380 (1981) 1750 495 645 969 1000 1360 2060 2370 3120 4350
2021-03-27 00:45 6.00 2840 8010 (1949) 380 (1981) 1750 495 645 969 1000 1360 2060 2370 3120 4350
2021-03-26 23:45 5.99 2830 13000 (2002) 380 (1981) 1800 478 646 900 989 1330 1880 2200 3270 5290
2021-03-26 22:45 5.97 2820 13000 (2002) 380 (1981) 1800 478 646 900 989 1330 1880 2200 3270 5290
2021-03-26 21:45 5.96 2810 13000 (2002) 380 (1981) 1800 478 646 900 989 1330 1880 2200 3270 5290
2021-03-26 20:45 5.96 2810 13000 (2002) 380 (1981) 1800 478 646 900 989 1330 1880 2200 3270 5290
2021-03-26 19:45 5.94 2790 13000 (2002) 380 (1981) 1800 478 646 900 989 1330 1880 2200 3270 5290
2021-03-26 18:45 5.93 2780 13000 (2002) 380 (1981) 1800 478 646 900 989 1330 1880 2200 3270 5290
2021-03-26 17:45 5.92 2770 13000 (2002) 380 (1981) 1800 478 646 900 989 1330 1880 2200 3270 5290
2021-03-26 16:45 5.90 2750 13000 (2002) 380 (1981) 1800 478 646 900 989 1330 1880 2200 3270 5290
2021-03-26 15:45 5.90 2750 13000 (2002) 380 (1981) 1800 478 646 900 989 1330 1880 2200 3270 5290
2021-03-26 14:45 5.90 2750 13000 (2002) 380 (1981) 1800 478 646 900 989 1330 1880 2200 3270 5290
2021-03-26 13:45 5.89 2740 13000 (2002) 380 (1981) 1800 478 646 900 989 1330 1880 2200 3270 5290
2021-03-26 12:45 5.88 2740 13000 (2002) 380 (1981) 1800 478 646 900 989 1330 1880 2200 3270 5290
2021-03-26 11:45 5.89 2740 13000 (2002) 380 (1981) 1800 478 646 900 989 1330 1880 2200 3270 5290
2021-03-26 10:45 5.88 2740 13000 (2002) 380 (1981) 1800 478 646 900 989 1330 1880 2200 3270 5290
2021-03-26 09:45 5.90 2750 13000 (2002) 380 (1981) 1800 478 646 900 989 1330 1880 2200 3270 5290
2021-03-26 08:45 5.90 2750 13000 (2002) 380 (1981) 1800 478 646 900 989 1330 1880 2200 3270 5290
2021-03-26 07:45 5.91 2760 13000 (2002) 380 (1981) 1800 478 646 900 989 1330 1880 2200 3270 5290
2021-03-26 06:45 5.90 2750 13000 (2002) 380 (1981) 1800 478 646 900 989 1330 1880 2200 3270 5290
2021-03-26 05:45 5.92 2770 13000 (2002) 380 (1981) 1800 478 646 900 989 1330 1880 2200 3270 5290
2021-03-26 04:45 5.93 2780 13000 (2002) 380 (1981) 1800 478 646 900 989 1330 1880 2200 3270 5290
2021-03-26 03:45 5.92 2770 13000 (2002) 380 (1981) 1800 478 646 900 989 1330 1880 2200 3270 5290
2021-03-26 02:45 5.94 2790 13000 (2002) 380 (1981) 1800 478 646 900 989 1330 1880 2200 3270 5290
2021-03-26 01:45 5.94 2790 13000 (2002) 380 (1981) 1800 478 646 900 989 1330 1880 2200 3270 5290
2021-03-26 00:45 5.93 2780 13000 (2002) 380 (1981) 1800 478 646 900 989 1330 1880 2200 3270 5290
2021-03-25 23:45 5.95 2800 10600 (1958) 383 (1981) 1710 480 633 875 965 1350 1890 2160 3080 3520
2021-03-25 22:45 5.95 2800 10600 (1958) 383 (1981) 1710 480 633 875 965 1350 1890 2160 3080 3520
2021-03-25 21:45 5.96 2810 10600 (1958) 383 (1981) 1710 480 633 875 965 1350 1890 2160 3080 3520
2021-03-25 20:45 5.96 2810 10600 (1958) 383 (1981) 1710 480 633 875 965 1350 1890 2160 3080 3520
2021-03-25 19:45 5.97 2820 10600 (1958) 383 (1981) 1710 480 633 875 965 1350 1890 2160 3080 3520
2021-03-25 18:45 5.98 2820 10600 (1958) 383 (1981) 1710 480 633 875 965 1350 1890 2160 3080 3520
2021-03-25 17:45 5.97 2820 10600 (1958) 383 (1981) 1710 480 633 875 965 1350 1890 2160 3080 3520
2021-03-25 16:45 5.96 2810 10600 (1958) 383 (1981) 1710 480 633 875 965 1350 1890 2160 3080 3520
2021-03-25 15:45 5.97 2820 10600 (1958) 383 (1981) 1710 480 633 875 965 1350 1890 2160 3080 3520
2021-03-25 14:45 5.97 2820 10600 (1958) 383 (1981) 1710 480 633 875 965 1350 1890 2160 3080 3520
2021-03-25 13:45 5.94 2790 10600 (1958) 383 (1981) 1710 480 633 875 965 1350 1890 2160 3080 3520
2021-03-25 12:45 5.93 2780 10600 (1958) 383 (1981) 1710 480 633 875 965 1350 1890 2160 3080 3520
2021-03-25 11:45 5.92 2770 10600 (1958) 383 (1981) 1710 480 633 875 965 1350 1890 2160 3080 3520
2021-03-25 10:45 5.90 2750 10600 (1958) 383 (1981) 1710 480 633 875 965 1350 1890 2160 3080 3520
2021-03-25 09:45 5.87 2730 10600 (1958) 383 (1981) 1710 480 633 875 965 1350 1890 2160 3080 3520
2021-03-25 08:45 5.86 2720 10600 (1958) 383 (1981) 1710 480 633 875 965 1350 1890 2160 3080 3520
2021-03-25 07:45 5.84 2700 10600 (1958) 383 (1981) 1710 480 633 875 965 1350 1890 2160 3080 3520
2021-03-25 06:45 5.83 2690 10600 (1958) 383 (1981) 1710 480 633 875 965 1350 1890 2160 3080 3520
2021-03-25 05:45 5.81 2670 10600 (1958) 383 (1981) 1710 480 633 875 965 1350 1890 2160 3080 3520
2021-03-25 04:45 5.82 2680 10600 (1958) 383 (1981) 1710 480 633 875 965 1350 1890 2160 3080 3520
2021-03-25 03:45 5.84 2700 10600 (1958) 383 (1981) 1710 480 633 875 965 1350 1890 2160 3080 3520
2021-03-25 02:45 5.84 2700 10600 (1958) 383 (1981) 1710 480 633 875 965 1350 1890 2160 3080 3520
2021-03-25 01:45 5.86 2720 10600 (1958) 383 (1981) 1710 480 633 875 965 1350 1890 2160 3080 3520
2021-03-25 00:45 5.86 2720 10600 (1958) 383 (1981) 1710 480 633 875 965 1350 1890 2160 3080 3520
2021-03-24 23:45 5.88 2740 10600 (1958) 386 (1981) 1660 496 657 890 911 1370 1890 2160 3020 3720
2021-03-24 22:45 5.89 2740 10600 (1958) 386 (1981) 1660 496 657 890 911 1370 1890 2160 3020 3720
2021-03-24 21:45 5.91 2760 10600 (1958) 386 (1981) 1660 496 657 890 911 1370 1890 2160 3020 3720
2021-03-24 20:45 5.92 2770 10600 (1958) 386 (1981) 1660 496 657 890 911 1370 1890 2160 3020 3720
2021-03-24 19:45 5.94 2790 10600 (1958) 386 (1981) 1660 496 657 890 911 1370 1890 2160 3020 3720
2021-03-24 18:45 5.95 2800 10600 (1958) 386 (1981) 1660 496 657 890 911 1370 1890 2160 3020 3720
2021-03-24 17:45 5.96 2810 10600 (1958) 386 (1981) 1660 496 657 890 911 1370 1890 2160 3020 3720
2021-03-24 16:45 5.98 2820 10600 (1958) 386 (1981) 1660 496 657 890 911 1370 1890 2160 3020 3720
2021-03-24 15:45 5.98 2820 10600 (1958) 386 (1981) 1660 496 657 890 911 1370 1890 2160 3020 3720
2021-03-24 14:45 5.98 2820 10600 (1958) 386 (1981) 1660 496 657 890 911 1370 1890 2160 3020 3720
2021-03-24 13:45 5.99 2830 10600 (1958) 386 (1981) 1660 496 657 890 911 1370 1890 2160 3020 3720
2021-03-24 12:45 6.01 2850 10600 (1958) 386 (1981) 1660 496 657 890 911 1370 1890 2160 3020 3720
2021-03-24 11:45 6.02 2860 10600 (1958) 386 (1981) 1660 496 657 890 911 1370 1890 2160 3020 3720
2021-03-24 10:45 6.02 2860 10600 (1958) 386 (1981) 1660 496 657 890 911 1370 1890 2160 3020 3720
2021-03-24 09:45 6.02 2860 10600 (1958) 386 (1981) 1660 496 657 890 911 1370 1890 2160 3020 3720
2021-03-24 08:45 6.02 2860 10600 (1958) 386 (1981) 1660 496 657 890 911 1370 1890 2160 3020 3720
2021-03-24 07:45 6.01 2850 10600 (1958) 386 (1981) 1660 496 657 890 911 1370 1890 2160 3020 3720
2021-03-24 06:45 6.03 2870 10600 (1958) 386 (1981) 1660 496 657 890 911 1370 1890 2160 3020 3720
2021-03-24 05:45 6.03 2870 10600 (1958) 386 (1981) 1660 496 657 890 911 1370 1890 2160 3020 3720
2021-03-24 04:45 6.04 2880 10600 (1958) 386 (1981) 1660 496 657 890 911 1370 1890 2160 3020 3720
2021-03-24 03:45 6.05 2890 10600 (1958) 386 (1981) 1660 496 657 890 911 1370 1890 2160 3020 3720
2021-03-24 02:45 6.08 2910 10600 (1958) 386 (1981) 1660 496 657 890 911 1370 1890 2160 3020 3720
2021-03-24 01:45 6.09 2920 10600 (1958) 386 (1981) 1660 496 657 890 911 1370 1890 2160 3020 3720
2021-03-24 00:45 6.12 2950 10600 (1958) 386 (1981) 1660 496 657 890 911 1370 1890 2160 3020 3720
2021-03-23 23:45 6.15 2980 4470 (2008) 393 (1981) 1610 492 628 915 939 1370 1960 2250 3230 4120
2021-03-23 22:45 6.16 2990 4470 (2008) 393 (1981) 1610 492 628 915 939 1370 1960 2250 3230 4120
2021-03-23 21:45 6.18 3000 4470 (2008) 393 (1981) 1610 492 628 915 939 1370 1960 2250 3230 4120
2021-03-23 20:45 6.18 3000 4470 (2008) 393 (1981) 1610 492 628 915 939 1370 1960 2250 3230 4120
2021-03-23 19:45 6.20 3020 4470 (2008) 393 (1981) 1610 492 628 915 939 1370 1960 2250 3230 4120
2021-03-23 18:45 6.19 3010 4470 (2008) 393 (1981) 1610 492 628 915 939 1370 1960 2250 3230 4120
2021-03-23 17:45 6.18 3000 4470 (2008) 393 (1981) 1610 492 628 915 939 1370 1960 2250 3230 4120
2021-03-23 16:45 6.16 2990 4470 (2008) 393 (1981) 1610 492 628 915 939 1370 1960 2250 3230 4120
2021-03-23 15:45 6.16 2990 4470 (2008) 393 (1981) 1610 492 628 915 939 1370 1960 2250 3230 4120
2021-03-23 14:45 6.10 2930 4470 (2008) 393 (1981) 1610 492 628 915 939 1370 1960 2250 3230 4120
2021-03-23 13:45 6.04 2880 4470 (2008) 393 (1981) 1610 492 628 915 939 1370 1960 2250 3230 4120
2021-03-23 12:45 5.99 2830 4470 (2008) 393 (1981) 1610 492 628 915 939 1370 1960 2250 3230 4120
2021-03-23 11:45 5.93 2780 4470 (2008) 393 (1981) 1610 492 628 915 939 1370 1960 2250 3230 4120
2021-03-23 10:45 5.83 2690 4470 (2008) 393 (1981) 1610 492 628 915 939 1370 1960 2250 3230 4120
2021-03-23 09:45 5.80 2660 4470 (2008) 393 (1981) 1610 492 628 915 939 1370 1960 2250 3230 4120
2021-03-23 08:45 5.74 2610 4470 (2008) 393 (1981) 1610 492 628 915 939 1370 1960 2250 3230 4120
2021-03-23 07:45 5.71 2590 4470 (2008) 393 (1981) 1610 492 628 915 939 1370 1960 2250 3230 4120
2021-03-23 06:45 5.71 2590 4470 (2008) 393 (1981) 1610 492 628 915 939 1370 1960 2250 3230 4120
2021-03-23 05:45 5.66 2540 4470 (2008) 393 (1981) 1610 492 628 915 939 1370 1960 2250 3230 4120
2021-03-23 04:45 5.65 2530 4470 (2008) 393 (1981) 1610 492 628 915 939 1370 1960 2250 3230 4120
2021-03-23 03:45 5.64 2520 4470 (2008) 393 (1981) 1610 492 628 915 939 1370 1960 2250 3230 4120
2021-03-23 02:45 5.65 2530 4470 (2008) 393 (1981) 1610 492 628 915 939 1370 1960 2250 3230 4120
2021-03-23 01:45 5.66 2540 4470 (2008) 393 (1981) 1610 492 628 915 939 1370 1960 2250 3230 4120
2021-03-23 00:45 5.67 2550 4470 (2008) 393 (1981) 1610 492 628 915 939 1370 1960 2250 3230 4120
2021-03-22 23:45 5.68 2560 9290 (1955) 386 (1954) 1740 476 648 930 961 1380 1960 2300 3190 5000
2021-03-22 22:45 5.65 2530 9290 (1955) 386 (1954) 1740 476 648 930 961 1380 1960 2300 3190 5000
2021-03-22 21:45 5.69 2570 9290 (1955) 386 (1954) 1740 476 648 930 961 1380 1960 2300 3190 5000
2021-03-22 20:45 5.70 2580 9290 (1955) 386 (1954) 1740 476 648 930 961 1380 1960 2300 3190 5000
2021-03-22 19:45 5.71 2590 9290 (1955) 386 (1954) 1740 476 648 930 961 1380 1960 2300 3190 5000
2021-03-22 18:45 5.71 2590 9290 (1955) 386 (1954) 1740 476 648 930 961 1380 1960 2300 3190 5000
2021-03-22 17:45 5.71 2590 9290 (1955) 386 (1954) 1740 476 648 930 961 1380 1960 2300 3190 5000
2021-03-22 16:45 5.73 2600 9290 (1955) 386 (1954) 1740 476 648 930 961 1380 1960 2300 3190 5000
2021-03-22 15:45 5.72 2590 9290 (1955) 386 (1954) 1740 476 648 930 961 1380 1960 2300 3190 5000
2021-03-22 14:45 5.71 2590 9290 (1955) 386 (1954) 1740 476 648 930 961 1380 1960 2300 3190 5000
2021-03-22 13:45 5.73 2600 9290 (1955) 386 (1954) 1740 476 648 930 961 1380 1960 2300 3190 5000
2021-03-22 12:45 5.74 2610 9290 (1955) 386 (1954) 1740 476 648 930 961 1380 1960 2300 3190 5000
2021-03-22 11:45 5.75 2620 9290 (1955) 386 (1954) 1740 476 648 930 961 1380 1960 2300 3190 5000
2021-03-22 10:45 5.75 2620 9290 (1955) 386 (1954) 1740 476 648 930 961 1380 1960 2300 3190 5000
2021-03-22 09:45 5.78 2650 9290 (1955) 386 (1954) 1740 476 648 930 961 1380 1960 2300 3190 5000
2021-03-22 08:45 5.78 2650 9290 (1955) 386 (1954) 1740 476 648 930 961 1380 1960 2300 3190 5000
2021-03-22 07:45 5.80 2660 9290 (1955) 386 (1954) 1740 476 648 930 961 1380 1960 2300 3190 5000
2021-03-22 06:45 5.81 2670 9290 (1955) 386 (1954) 1740 476 648 930 961 1380 1960 2300 3190 5000
2021-03-22 05:45 5.82 2680 9290 (1955) 386 (1954) 1740 476 648 930 961 1380 1960 2300 3190 5000
2021-03-22 04:45 5.83 2690 9290 (1955) 386 (1954) 1740 476 648 930 961 1380 1960 2300 3190 5000
2021-03-22 03:45 5.83 2690 9290 (1955) 386 (1954) 1740 476 648 930 961 1380 1960 2300 3190 5000
2021-03-22 02:45 5.84 2700 9290 (1955) 386 (1954) 1740 476 648 930 961 1380 1960 2300 3190 5000
2021-03-22 01:45 5.85 2710 9290 (1955) 386 (1954) 1740 476 648 930 961 1380 1960 2300 3190 5000
2021-03-22 00:45 5.86 2720 9290 (1955) 386 (1954) 1740 476 648 930 961 1380 1960 2300 3190 5000
2021-03-21 23:45 5.87 2730 13500 (2008) 381 (1954) 1960 477 675 921 968 1420 2020 2160 3050 6930
2021-03-21 22:45 5.87 2730 13500 (2008) 381 (1954) 1960 477 675 921 968 1420 2020 2160 3050 6930
2021-03-21 21:45 5.89 2740 13500 (2008) 381 (1954) 1960 477 675 921 968 1420 2020 2160 3050 6930
2021-03-21 20:45 5.90 2750 13500 (2008) 381 (1954) 1960 477 675 921 968 1420 2020 2160 3050 6930
2021-03-21 19:45 5.91 2760 13500 (2008) 381 (1954) 1960 477 675 921 968 1420 2020 2160 3050 6930
2021-03-21 18:45 5.92 2770 13500 (2008) 381 (1954) 1960 477 675 921 968 1420 2020 2160 3050 6930
2021-03-21 17:45 5.94 2790 13500 (2008) 381 (1954) 1960 477 675 921 968 1420 2020 2160 3050 6930
2021-03-21 16:45 5.94 2790 13500 (2008) 381 (1954) 1960 477 675 921 968 1420 2020 2160 3050 6930
2021-03-21 15:45 5.94 2790 13500 (2008) 381 (1954) 1960 477 675 921 968 1420 2020 2160 3050 6930
2021-03-21 14:45 5.93 2780 13500 (2008) 381 (1954) 1960 477 675 921 968 1420 2020 2160 3050 6930
2021-03-21 13:45 5.95 2800 13500 (2008) 381 (1954) 1960 477 675 921 968 1420 2020 2160 3050 6930
2021-03-21 12:45 5.96 2810 13500 (2008) 381 (1954) 1960 477 675 921 968 1420 2020 2160 3050 6930
2021-03-21 11:45 5.97 2820 13500 (2008) 381 (1954) 1960 477 675 921 968 1420 2020 2160 3050 6930
2021-03-21 10:45 6.00 2840 13500 (2008) 381 (1954) 1960 477 675 921 968 1420 2020 2160 3050 6930
2021-03-21 09:45 6.01 2850 13500 (2008) 381 (1954) 1960 477 675 921 968 1420 2020 2160 3050 6930
2021-03-21 08:45 6.02 2860 13500 (2008) 381 (1954) 1960 477 675 921 968 1420 2020 2160 3050 6930
2021-03-21 07:45 6.04 2880 13500 (2008) 381 (1954) 1960 477 675 921 968 1420 2020 2160 3050 6930
2021-03-21 06:45 6.05 2890 13500 (2008) 381 (1954) 1960 477 675 921 968 1420 2020 2160 3050 6930
2021-03-21 05:45 6.07 2910 13500 (2008) 381 (1954) 1960 477 675 921 968 1420 2020 2160 3050 6930
2021-03-21 04:45 6.09 2920 13500 (2008) 381 (1954) 1960 477 675 921 968 1420 2020 2160 3050 6930
2021-03-21 03:45 6.10 2930 13500 (2008) 381 (1954) 1960 477 675 921 968 1420 2020 2160 3050 6930
2021-03-21 02:45 6.10 2930 13500 (2008) 381 (1954) 1960 477 675 921 968 1420 2020 2160 3050 6930
2021-03-21 01:45 6.11 2940 13500 (2008) 381 (1954) 1960 477 675 921 968 1420 2020 2160 3050 6930
2021-03-21 00:45 6.13 2960 13500 (2008) 381 (1954) 1960 477 675 921 968 1420 2020 2160 3050 6930
2021-03-20 23:45 6.15 2980 27100 (2008) 380 (1981) 2100 480 695 923 991 1440 2010 2150 3000 6270
2021-03-20 22:45 6.16 2990 27100 (2008) 380 (1981) 2100 480 695 923 991 1440 2010 2150 3000 6270
2021-03-20 21:45 6.17 3000 27100 (2008) 380 (1981) 2100 480 695 923 991 1440 2010 2150 3000 6270
2021-03-20 20:45 6.19 3010 27100 (2008) 380 (1981) 2100 480 695 923 991 1440 2010 2150 3000 6270
2021-03-20 19:45 6.19 3010 27100 (2008) 380 (1981) 2100 480 695 923 991 1440 2010 2150 3000 6270
2021-03-20 18:45 6.22 3040 27100 (2008) 380 (1981) 2100 480 695 923 991 1440 2010 2150 3000 6270
2021-03-20 17:45 6.24 3060 27100 (2008) 380 (1981) 2100 480 695 923 991 1440 2010 2150 3000 6270
2021-03-20 16:45 6.25 3070 27100 (2008) 380 (1981) 2100 480 695 923 991 1440 2010 2150 3000 6270
2021-03-20 15:45 6.26 3080 27100 (2008) 380 (1981) 2100 480 695 923 991 1440 2010 2150 3000 6270
2021-03-20 14:45 6.28 3100 27100 (2008) 380 (1981) 2100 480 695 923 991 1440 2010 2150 3000 6270
2021-03-20 13:45 6.30 3110 27100 (2008) 380 (1981) 2100 480 695 923 991 1440 2010 2150 3000 6270
2021-03-20 12:45 6.30 3110 27100 (2008) 380 (1981) 2100 480 695 923 991 1440 2010 2150 3000 6270
2021-03-20 11:45 6.33 3140 27100 (2008) 380 (1981) 2100 480 695 923 991 1440 2010 2150 3000 6270
2021-03-20 10:45 6.35 3160 27100 (2008) 380 (1981) 2100 480 695 923 991 1440 2010 2150 3000 6270
2021-03-20 09:45 6.36 3170 27100 (2008) 380 (1981) 2100 480 695 923 991 1440 2010 2150 3000 6270
2021-03-20 08:45 6.39 3200 27100 (2008) 380 (1981) 2100 480 695 923 991 1440 2010 2150 3000 6270
2021-03-20 07:45 6.41 3220 27100 (2008) 380 (1981) 2100 480 695 923 991 1440 2010 2150 3000 6270
2021-03-20 06:45 6.44 3240 27100 (2008) 380 (1981) 2100 480 695 923 991 1440 2010 2150 3000 6270
2021-03-20 05:45 6.44 3240 27100 (2008) 380 (1981) 2100 480 695 923 991 1440 2010 2150 3000 6270
2021-03-20 04:45 6.47 3270 27100 (2008) 380 (1981) 2100 480 695 923 991 1440 2010 2150 3000 6270
2021-03-20 03:45 6.50 3300 27100 (2008) 380 (1981) 2100 480 695 923 991 1440 2010 2150 3000 6270
2021-03-20 02:45 6.54 3340 27100 (2008) 380 (1981) 2100 480 695 923 991 1440 2010 2150 3000 6270
2021-03-20 01:45 6.56 3360 27100 (2008) 380 (1981) 2100 480 695 923 991 1440 2010 2150 3000 6270
2021-03-20 00:45 6.58 3370 27100 (2008) 380 (1981) 2100 480 695 923 991 1440 2010 2150 3000 6270
2021-03-19 23:45 6.60 3390 53500 (2008) 386 (1954) 2300 503 662 872 969 1400 2070 2150 3060 4890
2021-03-19 22:45 6.63 3420 53500 (2008) 386 (1954) 2300 503 662 872 969 1400 2070 2150 3060 4890
2021-03-19 21:45 6.66 3450 53500 (2008) 386 (1954) 2300 503 662 872 969 1400 2070 2150 3060 4890
2021-03-19 20:45 6.68 3470 53500 (2008) 386 (1954) 2300 503 662 872 969 1400 2070 2150 3060 4890
2021-03-19 19:45 6.71 3500 53500 (2008) 386 (1954) 2300 503 662 872 969 1400 2070 2150 3060 4890
2021-03-19 18:45 6.77 3550 53500 (2008) 386 (1954) 2300 503 662 872 969 1400 2070 2150 3060 4890
2021-03-19 17:45 6.79 3570 53500 (2008) 386 (1954) 2300 503 662 872 969 1400 2070 2150 3060 4890
2021-03-19 16:45 6.83 3610 53500 (2008) 386 (1954) 2300 503 662 872 969 1400 2070 2150 3060 4890
2021-03-19 15:45 6.85 3630 53500 (2008) 386 (1954) 2300 503 662 872 969 1400 2070 2150 3060 4890
2021-03-19 14:45 6.91 3690 53500 (2008) 386 (1954) 2300 503 662 872 969 1400 2070 2150 3060 4890
2021-03-19 13:45 6.92 3700 53500 (2008) 386 (1954) 2300 503 662 872 969 1400 2070 2150 3060 4890
2021-03-19 12:45 6.95 3730 53500 (2008) 386 (1954) 2300 503 662 872 969 1400 2070 2150 3060 4890
2021-03-19 11:45 6.99 3770 53500 (2008) 386 (1954) 2300 503 662 872 969 1400 2070 2150 3060 4890
2021-03-19 10:45 7.03 3810 53500 (2008) 386 (1954) 2300 503 662 872 969 1400 2070 2150 3060 4890
2021-03-19 09:45 7.07 3840 53500 (2008) 386 (1954) 2300 503 662 872 969 1400 2070 2150 3060 4890
2021-03-19 08:45 7.11 3880 53500 (2008) 386 (1954) 2300 503 662 872 969 1400 2070 2150 3060 4890
2021-03-19 07:45 7.16 3930 53500 (2008) 386 (1954) 2300 503 662 872 969 1400 2070 2150 3060 4890
2021-03-19 06:45 7.21 3980 53500 (2008) 386 (1954) 2300 503 662 872 969 1400 2070 2150 3060 4890
2021-03-19 05:45 7.26 4030 53500 (2008) 386 (1954) 2300 503 662 872 969 1400 2070 2150 3060 4890
2021-03-19 04:45 7.31 4080 53500 (2008) 386 (1954) 2300 503 662 872 969 1400 2070 2150 3060 4890
2021-03-19 03:45 7.36 4130 53500 (2008) 386 (1954) 2300 503 662 872 969 1400 2070 2150 3060 4890
2021-03-19 02:45 7.43 4200 53500 (2008) 386 (1954) 2300 503 662 872 969 1400 2070 2150 3060 4890
2021-03-19 01:45 7.48 4250 53500 (2008) 386 (1954) 2300 503 662 872 969 1400 2070 2150 3060 4890
2021-03-19 00:45 7.52 4290 53500 (2008) 386 (1954) 2300 503 662 872 969 1400 2070 2150 3060 4890
2021-03-18 23:45 7.58 4350 6580 (2008) 362 (1954) 1600 505 632 828 949 1280 1930 2300 2890 3810
2021-03-18 22:45 7.64 4410 6580 (2008) 362 (1954) 1600 505 632 828 949 1280 1930 2300 2890 3810
2021-03-18 21:45 7.70 4470 6580 (2008) 362 (1954) 1600 505 632 828 949 1280 1930 2300 2890 3810
2021-03-18 20:45 7.78 4550 6580 (2008) 362 (1954) 1600 505 632 828 949 1280 1930 2300 2890 3810
2021-03-18 19:45 7.84 4610 6580 (2008) 362 (1954) 1600 505 632 828 949 1280 1930 2300 2890 3810
2021-03-18 18:45 7.92 4690 6580 (2008) 362 (1954) 1600 505 632 828 949 1280 1930 2300 2890 3810
2021-03-18 17:45 8.03 4790 6580 (2008) 362 (1954) 1600 505 632 828 949 1280 1930 2300 2890 3810
2021-03-18 16:45 8.12 4880 6580 (2008) 362 (1954) 1600 505 632 828 949 1280 1930 2300 2890 3810
2021-03-18 15:45 8.24 4990 6580 (2008) 362 (1954) 1600 505 632 828 949 1280 1930 2300 2890 3810
2021-03-18 14:45 8.34 5090 6580 (2008) 362 (1954) 1600 505 632 828 949 1280 1930 2300 2890 3810
2021-03-18 13:45 8.41 5160 6580 (2008) 362 (1954) 1600 505 632 828 949 1280 1930 2300 2890 3810
2021-03-18 12:45 8.55 5300 6580 (2008) 362 (1954) 1600 505 632 828 949 1280 1930 2300 2890 3810
2021-03-18 11:45 8.59 5340 6580 (2008) 362 (1954) 1600 505 632 828 949 1280 1930 2300 2890 3810
2021-03-18 10:45 8.61 5360 6580 (2008) 362 (1954) 1600 505 632 828 949 1280 1930 2300 2890 3810
2021-03-18 09:45 8.60 5350 6580 (2008) 362 (1954) 1600 505 632 828 949 1280 1930 2300 2890 3810
2021-03-18 08:45 8.54 5290 6580 (2008) 362 (1954) 1600 505 632 828 949 1280 1930 2300 2890 3810
2021-03-18 07:45 8.48 5230 6580 (2008) 362 (1954) 1600 505 632 828 949 1280 1930 2300 2890 3810
2021-03-18 06:45 8.45 5200 6580 (2008) 362 (1954) 1600 505 632 828 949 1280 1930 2300 2890 3810
2021-03-18 05:45 8.45 5200 6580 (2008) 362 (1954) 1600 505 632 828 949 1280 1930 2300 2890 3810
2021-03-18 04:45 8.47 5220 6580 (2008) 362 (1954) 1600 505 632 828 949 1280 1930 2300 2890 3810
2021-03-18 03:45 8.47 5220 6580 (2008) 362 (1954) 1600 505 632 828 949 1280 1930 2300 2890 3810
2021-03-18 02:45 8.48 5230 6580 (2008) 362 (1954) 1600 505 632 828 949 1280 1930 2300 2890 3810
2021-03-18 01:45 8.41 5160 6580 (2008) 362 (1954) 1600 505 632 828 949 1280 1930 2300 2890 3810
2021-03-18 00:45 8.37 5120 6580 (2008) 362 (1954) 1600 505 632 828 949 1280 1930 2300 2890 3810
2021-03-17 23:45 8.34 5090 4030 (2015) 362 (1954) 1510 505 568 827 951 1260 1890 2260 2680 3170
2021-03-17 22:45 8.34 5090 4030 (2015) 362 (1954) 1510 505 568 827 951 1260 1890 2260 2680 3170
2021-03-17 21:45 8.39 5140 4030 (2015) 362 (1954) 1510 505 568 827 951 1260 1890 2260 2680 3170
2021-03-17 20:45 8.50 5250 4030 (2015) 362 (1954) 1510 505 568 827 951 1260 1890 2260 2680 3170
2021-03-17 19:45 8.61 5360 4030 (2015) 362 (1954) 1510 505 568 827 951 1260 1890 2260 2680 3170
2021-03-17 18:45 8.70 5450 4030 (2015) 362 (1954) 1510 505 568 827 951 1260 1890 2260 2680 3170
2021-03-17 17:45 8.75 5500 4030 (2015) 362 (1954) 1510 505 568 827 951 1260 1890 2260 2680 3170
2021-03-17 16:45 8.74 5490 4030 (2015) 362 (1954) 1510 505 568 827 951 1260 1890 2260 2680 3170
2021-03-17 15:45 8.61 5360 4030 (2015) 362 (1954) 1510 505 568 827 951 1260 1890 2260 2680 3170
2021-03-17 14:45 8.31 5060 4030 (2015) 362 (1954) 1510 505 568 827 951 1260 1890 2260 2680 3170
2021-03-17 13:45 7.97 4730 4030 (2015) 362 (1954) 1510 505 568 827 951 1260 1890 2260 2680 3170
2021-03-17 12:45 7.60 4370 4030 (2015) 362 (1954) 1510 505 568 827 951 1260 1890 2260 2680 3170
2021-03-17 11:45 7.31 4080 4030 (2015) 362 (1954) 1510 505 568 827 951 1260 1890 2260 2680 3170
2021-03-17 10:45 7.04 3810 4030 (2015) 362 (1954) 1510 505 568 827 951 1260 1890 2260 2680 3170
2021-03-17 09:45 6.83 3610 4030 (2015) 362 (1954) 1510 505 568 827 951 1260 1890 2260 2680 3170
2021-03-17 08:45 6.67 3460 4030 (2015) 362 (1954) 1510 505 568 827 951 1260 1890 2260 2680 3170
2021-03-17 07:45 6.59 3380 4030 (2015) 362 (1954) 1510 505 568 827 951 1260 1890 2260 2680 3170
2021-03-17 06:45 6.57 3370 4030 (2015) 362 (1954) 1510 505 568 827 951 1260 1890 2260 2680 3170
2021-03-17 05:45 6.59 3380 4030 (2015) 362 (1954) 1510 505 568 827 951 1260 1890 2260 2680 3170
2021-03-17 04:45 6.62 3410 4030 (2015) 362 (1954) 1510 505 568 827 951 1260 1890 2260 2680 3170
2021-03-17 03:45 6.65 3440 4030 (2015) 362 (1954) 1510 505 568 827 951 1260 1890 2260 2680 3170
2021-03-17 02:45 6.67 3460 4030 (2015) 362 (1954) 1510 505 568 827 951 1260 1890 2260 2680 3170
2021-03-17 01:45 6.69 3480 4030 (2015) 362 (1954) 1510 505 568 827 951 1260 1890 2260 2680 3170
2021-03-17 00:45 6.71 3500 4030 (2015) 362 (1954) 1510 505 568 827 951 1260 1890 2260 2680 3170
2021-03-16 23:45 6.75 3540 5130 (2015) 367 (1954) 1500 496 579 799 875 1270 1970 2090 2770 2860
2021-03-16 22:45 6.77 3550 5130 (2015) 367 (1954) 1500 496 579 799 875 1270 1970 2090 2770 2860
2021-03-16 21:45 6.81 3590 5130 (2015) 367 (1954) 1500 496 579 799 875 1270 1970 2090 2770 2860
2021-03-16 20:45 6.83 3610 5130 (2015) 367 (1954) 1500 496 579 799 875 1270 1970 2090 2770 2860
2021-03-16 19:45 6.86 3640 5130 (2015) 367 (1954) 1500 496 579 799 875 1270 1970 2090 2770 2860
2021-03-16 18:45 6.90 3680 5130 (2015) 367 (1954) 1500 496 579 799 875 1270 1970 2090 2770 2860
2021-03-16 17:45 6.92 3700 5130 (2015) 367 (1954) 1500 496 579 799 875 1270 1970 2090 2770 2860
2021-03-16 16:45 6.96 3740 5130 (2015) 367 (1954) 1500 496 579 799 875 1270 1970 2090 2770 2860
2021-03-16 15:45 7.00 3780 5130 (2015) 367 (1954) 1500 496 579 799 875 1270 1970 2090 2770 2860
2021-03-16 14:45 7.04 3810 5130 (2015) 367 (1954) 1500 496 579 799 875 1270 1970 2090 2770 2860
2021-03-16 13:45 7.05 3820 5130 (2015) 367 (1954) 1500 496 579 799 875 1270 1970 2090 2770 2860
2021-03-16 12:45 7.11 3880 5130 (2015) 367 (1954) 1500 496 579 799 875 1270 1970 2090 2770 2860
2021-03-16 11:45 7.14 3910 5130 (2015) 367 (1954) 1500 496 579 799 875 1270 1970 2090 2770 2860
2021-03-16 10:45 7.18 3950 5130 (2015) 367 (1954) 1500 496 579 799 875 1270 1970 2090 2770 2860
2021-03-16 09:45 7.21 3980 5130 (2015) 367 (1954) 1500 496 579 799 875 1270 1970 2090 2770 2860
2021-03-16 08:45 7.23 4000 5130 (2015) 367 (1954) 1500 496 579 799 875 1270 1970 2090 2770 2860
2021-03-16 07:45 7.25 4020 5130 (2015) 367 (1954) 1500 496 579 799 875 1270 1970 2090 2770 2860
2021-03-16 06:45 7.25 4020 5130 (2015) 367 (1954) 1500 496 579 799 875 1270 1970 2090 2770 2860
2021-03-16 05:45 7.30 4070 5130 (2015) 367 (1954) 1500 496 579 799 875 1270 1970 2090 2770 2860
2021-03-16 04:45 7.29 4060 5130 (2015) 367 (1954) 1500 496 579 799 875 1270 1970 2090 2770 2860
2021-03-16 03:45 7.32 4090 5130 (2015) 367 (1954) 1500 496 579 799 875 1270 1970 2090 2770 2860
2021-03-16 02:45 7.34 4110 5130 (2015) 367 (1954) 1500 496 579 799 875 1270 1970 2090 2770 2860
2021-03-16 01:45 7.36 4130 5130 (2015) 367 (1954) 1500 496 579 799 875 1270 1970 2090 2770 2860
2021-03-16 00:45 7.37 4140 5130 (2015) 367 (1954) 1500 496 579 799 875 1270 1970 2090 2770 2860
2021-03-15 23:45 7.40 4170 8570 (2015) 372 (1954) 1590 491 597 801 836 1260 1980 2150 2820 3440
2021-03-15 22:45 7.43 4200 8570 (2015) 372 (1954) 1590 491 597 801 836 1260 1980 2150 2820 3440
2021-03-15 21:45 7.46 4230 8570 (2015) 372 (1954) 1590 491 597 801 836 1260 1980 2150 2820 3440
2021-03-15 20:45 7.53 4300 8570 (2015) 372 (1954) 1590 491 597 801 836 1260 1980 2150 2820 3440
2021-03-15 19:45 7.61 4380 8570 (2015) 372 (1954) 1590 491 597 801 836 1260 1980 2150 2820 3440
2021-03-15 18:45 7.73 4500 8570 (2015) 372 (1954) 1590 491 597 801 836 1260 1980 2150 2820 3440
2021-03-15 17:45 7.82 4590 8570 (2015) 372 (1954) 1590 491 597 801 836 1260 1980 2150 2820 3440
2021-03-15 16:45 7.93 4700 8570 (2015) 372 (1954) 1590 491 597 801 836 1260 1980 2150 2820 3440
2021-03-15 15:45 8.04 4800 8570 (2015) 372 (1954) 1590 491 597 801 836 1260 1980 2150 2820 3440
2021-03-15 14:45 8.18 4940 8570 (2015) 372 (1954) 1590 491 597 801 836 1260 1980 2150 2820 3440
2021-03-15 13:45 8.31 5060 8570 (2015) 372 (1954) 1590 491 597 801 836 1260 1980 2150 2820 3440
2021-03-15 12:45 8.47 5220 8570 (2015) 372 (1954) 1590 491 597 801 836 1260 1980 2150 2820 3440
2021-03-15 11:45 8.61 5360 8570 (2015) 372 (1954) 1590 491 597 801 836 1260 1980 2150 2820 3440
2021-03-15 10:45 8.71 5460 8570 (2015) 372 (1954) 1590 491 597 801 836 1260 1980 2150 2820 3440
2021-03-15 09:45 8.78 5530 8570 (2015) 372 (1954) 1590 491 597 801 836 1260 1980 2150 2820 3440
2021-03-15 08:45 8.78 5530 8570 (2015) 372 (1954) 1590 491 597 801 836 1260 1980 2150 2820 3440
2021-03-15 07:45 8.71 5460 8570 (2015) 372 (1954) 1590 491 597 801 836 1260 1980 2150 2820 3440
2021-03-15 06:45 8.60 5350 8570 (2015) 372 (1954) 1590 491 597 801 836 1260 1980 2150 2820 3440
2021-03-15 05:45 8.41 5160 8570 (2015) 372 (1954) 1590 491 597 801 836 1260 1980 2150 2820 3440
2021-03-15 04:45 8.19 4950 8570 (2015) 372 (1954) 1590 491 597 801 836 1260 1980 2150 2820 3440
2021-03-15 03:45 7.91 4680 8570 (2015) 372 (1954) 1590 491 597 801 836 1260 1980 2150 2820 3440
2021-03-15 02:45 7.67 4440 8570 (2015) 372 (1954) 1590 491 597 801 836 1260 1980 2150 2820 3440
2021-03-15 01:45 7.53 4300 8570 (2015) 372 (1954) 1590 491 597 801 836 1260 1980 2150 2820 3440
2021-03-15 00:45 7.50 4270 8570 (2015) 372 (1954) 1590 491 597 801 836 1260 1980 2150 2820 3440
2021-03-14 23:45 7.53 4300 12900 (2015) 381 (1954) 1660 495 600 823 859 1270 2020 2120 2980 3670
2021-03-14 22:45 7.58 4350 12900 (2015) 381 (1954) 1660 495 600 823 859 1270 2020 2120 2980 3670
2021-03-14 21:45 7.61 4380 12900 (2015) 381 (1954) 1660 495 600 823 859 1270 2020 2120 2980 3670
2021-03-14 20:45 7.66 4430 12900 (2015) 381 (1954) 1660 495 600 823 859 1270 2020 2120 2980 3670
2021-03-14 19:45 7.68 4450 12900 (2015) 381 (1954) 1660 495 600 823 859 1270 2020 2120 2980 3670
2021-03-14 18:45 7.70 4470 12900 (2015) 381 (1954) 1660 495 600 823 859 1270 2020 2120 2980 3670
2021-03-14 17:45 7.67 4440 12900 (2015) 381 (1954) 1660 495 600 823 859 1270 2020 2120 2980 3670
2021-03-14 16:45 7.62 4390 12900 (2015) 381 (1954) 1660 495 600 823 859 1270 2020 2120 2980 3670
2021-03-14 15:45 7.57 4340 12900 (2015) 381 (1954) 1660 495 600 823 859 1270 2020 2120 2980 3670
2021-03-14 14:45 7.53 4300 12900 (2015) 381 (1954) 1660 495 600 823 859 1270 2020 2120 2980 3670
2021-03-14 13:45 7.52 4290 12900 (2015) 381 (1954) 1660 495 600 823 859 1270 2020 2120 2980 3670
2021-03-14 12:45 7.47 4240 12900 (2015) 381 (1954) 1660 495 600 823 859 1270 2020 2120 2980 3670
2021-03-14 11:45 7.47 4240 12900 (2015) 381 (1954) 1660 495 600 823 859 1270 2020 2120 2980 3670
2021-03-14 10:45 7.43 4200 12900 (2015) 381 (1954) 1660 495 600 823 859 1270 2020 2120 2980 3670
2021-03-14 09:45 7.39 4160 12900 (2015) 381 (1954) 1660 495 600 823 859 1270 2020 2120 2980 3670
2021-03-14 08:45 7.36 4130 12900 (2015) 381 (1954) 1660 495 600 823 859 1270 2020 2120 2980 3670
2021-03-14 07:45 7.30 4070 12900 (2015) 381 (1954) 1660 495 600 823 859 1270 2020 2120 2980 3670
2021-03-14 06:45 7.25 4020 12900 (2015) 381 (1954) 1660 495 600 823 859 1270 2020 2120 2980 3670
2021-03-14 05:45 7.23 4000 12900 (2015) 381 (1954) 1660 495 600 823 859 1270 2020 2120 2980 3670
2021-03-14 04:45 7.21 3980 12900 (2015) 381 (1954) 1660 495 600 823 859 1270 2020 2120 2980 3670
2021-03-14 03:45 7.19 3960 12900 (2015) 381 (1954) 1660 495 600 823 859 1270 2020 2120 2980 3670
2021-03-14 01:45 7.16 3930 12900 (2015) 381 (1954) 1660 495 600 823 859 1270 2020 2120 2980 3670
2021-03-14 00:45 7.13 3900 12900 (2015) 381 (1954) 1660 495 600 823 859 1270 2020 2120 2980 3670
2021-03-13 23:45 7.12 3890 7200 (2015) 391 (1954) 1620 500 592 841 895 1300 2030 2190 2910 4030
2021-03-13 22:45 7.14 3910 7200 (2015) 391 (1954) 1620 500 592 841 895 1300 2030 2190 2910 4030
2021-03-13 21:45 7.20 3970 7200 (2015) 391 (1954) 1620 500 592 841 895 1300 2030 2190 2910 4030
2021-03-13 20:45 7.32 4090 7200 (2015) 391 (1954) 1620 500 592 841 895 1300 2030 2190 2910 4030
2021-03-13 19:45 7.49 4260 7200 (2015) 391 (1954) 1620 500 592 841 895 1300 2030 2190 2910 4030
2021-03-13 18:45 7.68 4450 7200 (2015) 391 (1954) 1620 500 592 841 895 1300 2030 2190 2910 4030
2021-03-13 17:45 7.93 4700 7200 (2015) 391 (1954) 1620 500 592 841 895 1300 2030 2190 2910 4030
2021-03-13 16:45 8.16 4920 7200 (2015) 391 (1954) 1620 500 592 841 895 1300 2030 2190 2910 4030
2021-03-13 15:45 8.35 5100 7200 (2015) 391 (1954) 1620 500 592 841 895 1300 2030 2190 2910 4030
2021-03-13 14:45 8.50 5250 7200 (2015) 391 (1954) 1620 500 592 841 895 1300 2030 2190 2910 4030
2021-03-13 13:45 8.66 5410 7200 (2015) 391 (1954) 1620 500 592 841 895 1300 2030 2190 2910 4030
2021-03-13 12:45 8.81 5560 7200 (2015) 391 (1954) 1620 500 592 841 895 1300 2030 2190 2910 4030
2021-03-13 11:45 8.90 5650 7200 (2015) 391 (1954) 1620 500 592 841 895 1300 2030 2190 2910 4030
2021-03-13 10:45 8.96 5710 7200 (2015) 391 (1954) 1620 500 592 841 895 1300 2030 2190 2910 4030
2021-03-13 09:45 8.87 5620 7200 (2015) 391 (1954) 1620 500 592 841 895 1300 2030 2190 2910 4030
2021-03-13 08:45 8.61 5360 7200 (2015) 391 (1954) 1620 500 592 841 895 1300 2030 2190 2910 4030
2021-03-13 07:45 8.33 5080 7200 (2015) 391 (1954) 1620 500 592 841 895 1300 2030 2190 2910 4030
2021-03-13 06:45 8.01 4770 7200 (2015) 391 (1954) 1620 500 592 841 895 1300 2030 2190 2910 4030
2021-03-13 05:45 7.54 4310 7200 (2015) 391 (1954) 1620 500 592 841 895 1300 2030 2190 2910 4030
2021-03-13 04:45 6.96 3740 7200 (2015) 391 (1954) 1620 500 592 841 895 1300 2030 2190 2910 4030
2021-03-13 03:45 6.42 3230 7200 (2015) 391 (1954) 1620 500 592 841 895 1300 2030 2190 2910 4030
2021-03-13 02:45 4.88 1890 7200 (2015) 391 (1954) 1620 500 592 841 895 1300 2030 2190 2910 4030
2021-03-13 01:45 4.35 1480 7200 (2015) 391 (1954) 1620 500 592 841 895 1300 2030 2190 2910 4030
2021-03-13 00:45 4.31 1450 7200 (2015) 391 (1954) 1620 500 592 841 895 1300 2030 2190 2910 4030
2021-03-12 23:45 4.32 1460 9410 (1952) 400 (1954) 1760 502 618 857 905 1290 2060 2310 3110 5020
2021-03-12 22:45 4.32 1460 9410 (1952) 400 (1954) 1760 502 618 857 905 1290 2060 2310 3110 5020
2021-03-12 21:45 4.32 1460 9410 (1952) 400 (1954) 1760 502 618 857 905 1290 2060 2310 3110 5020
2021-03-12 20:45 4.33 1470 9410 (1952) 400 (1954) 1760 502 618 857 905 1290 2060 2310 3110 5020
2021-03-12 19:45 4.32 1460 9410 (1952) 400 (1954) 1760 502 618 857 905 1290 2060 2310 3110 5020
2021-03-12 18:45 4.33 1470 9410 (1952) 400 (1954) 1760 502 618 857 905 1290 2060 2310 3110 5020
2021-03-12 17:45 4.34 1470 9410 (1952) 400 (1954) 1760 502 618 857 905 1290 2060 2310 3110 5020
2021-03-12 16:45 4.34 1470 9410 (1952) 400 (1954) 1760 502 618 857 905 1290 2060 2310 3110 5020
2021-03-12 15:45 4.34 1470 9410 (1952) 400 (1954) 1760 502 618 857 905 1290 2060 2310 3110 5020
2021-03-12 14:45 4.34 1470 9410 (1952) 400 (1954) 1760 502 618 857 905 1290 2060 2310 3110 5020
2021-03-12 13:45 4.34 1470 9410 (1952) 400 (1954) 1760 502 618 857 905 1290 2060 2310 3110 5020
2021-03-12 12:45 4.34 1470 9410 (1952) 400 (1954) 1760 502 618 857 905 1290 2060 2310 3110 5020
2021-03-12 11:45 4.35 1480 9410 (1952) 400 (1954) 1760 502 618 857 905 1290 2060 2310 3110 5020
2021-03-12 10:45 4.35 1480 9410 (1952) 400 (1954) 1760 502 618 857 905 1290 2060 2310 3110 5020
2021-03-12 09:45 4.37 1500 9410 (1952) 400 (1954) 1760 502 618 857 905 1290 2060 2310 3110 5020
2021-03-12 08:45 4.35 1480 9410 (1952) 400 (1954) 1760 502 618 857 905 1290 2060 2310 3110 5020
2021-03-12 07:45 4.34 1470 9410 (1952) 400 (1954) 1760 502 618 857 905 1290 2060 2310 3110 5020
2021-03-12 06:45 4.35 1480 9410 (1952) 400 (1954) 1760 502 618 857 905 1290 2060 2310 3110 5020
2021-03-12 05:45 4.35 1480 9410 (1952) 400 (1954) 1760 502 618 857 905 1290 2060 2310 3110 5020
2021-03-12 04:45 4.35 1480 9410 (1952) 400 (1954) 1760 502 618 857 905 1290 2060 2310 3110 5020
2021-03-12 03:45 4.35 1480 9410 (1952) 400 (1954) 1760 502 618 857 905 1290 2060 2310 3110 5020
2021-03-12 02:45 4.35 1480 9410 (1952) 400 (1954) 1760 502 618 857 905 1290 2060 2310 3110 5020
2021-03-12 01:45 4.36 1490 9410 (1952) 400 (1954) 1760 502 618 857 905 1290 2060 2310 3110 5020
2021-03-12 00:45 4.35 1480 9410 (1952) 400 (1954) 1760 502 618 857 905 1290 2060 2310 3110 5020
2021-03-11 23:45 4.35 1480 14400 (1973) 405 (1954) 1830 507 571 831 919 1250 2020 2280 2890 4110
2021-03-11 22:45 4.36 1490 14400 (1973) 405 (1954) 1830 507 571 831 919 1250 2020 2280 2890 4110
2021-03-11 21:45 4.36 1490 14400 (1973) 405 (1954) 1830 507 571 831 919 1250 2020 2280 2890 4110
2021-03-11 20:45 4.36 1490 14400 (1973) 405 (1954) 1830 507 571 831 919 1250 2020 2280 2890 4110
2021-03-11 19:45 4.37 1500 14400 (1973) 405 (1954) 1830 507 571 831 919 1250 2020 2280 2890 4110
2021-03-11 18:45 4.37 1500 14400 (1973) 405 (1954) 1830 507 571 831 919 1250 2020 2280 2890 4110
2021-03-11 17:45 4.37 1500 14400 (1973) 405 (1954) 1830 507 571 831 919 1250 2020 2280 2890 4110
2021-03-11 16:45 4.37 1500 14400 (1973) 405 (1954) 1830 507 571 831 919 1250 2020 2280 2890 4110
2021-03-11 15:45 4.38 1500 14400 (1973) 405 (1954) 1830 507 571 831 919 1250 2020 2280 2890 4110
2021-03-11 14:45 4.38 1500 14400 (1973) 405 (1954) 1830 507 571 831 919 1250 2020 2280 2890 4110
2021-03-11 13:45 4.37 1500 14400 (1973) 405 (1954) 1830 507 571 831 919 1250 2020 2280 2890 4110
2021-03-11 12:45 4.38 1500 14400 (1973) 405 (1954) 1830 507 571 831 919 1250 2020 2280 2890 4110
2021-03-11 11:45 4.35 1480 14400 (1973) 405 (1954) 1830 507 571 831 919 1250 2020 2280 2890 4110
2021-03-11 10:45 4.37 1500 14400 (1973) 405 (1954) 1830 507 571 831 919 1250 2020 2280 2890 4110
2021-03-11 09:45 4.39 1510 14400 (1973) 405 (1954) 1830 507 571 831 919 1250 2020 2280 2890 4110
2021-03-11 08:45 4.36 1490 14400 (1973) 405 (1954) 1830 507 571 831 919 1250 2020 2280 2890 4110
2021-03-11 07:45 4.39 1510 14400 (1973) 405 (1954) 1830 507 571 831 919 1250 2020 2280 2890 4110
2021-03-11 06:45 4.39 1510 14400 (1973) 405 (1954) 1830 507 571 831 919 1250 2020 2280 2890 4110
2021-03-11 05:45 4.39 1510 14400 (1973) 405 (1954) 1830 507 571 831 919 1250 2020 2280 2890 4110
2021-03-11 04:45 4.40 1520 14400 (1973) 405 (1954) 1830 507 571 831 919 1250 2020 2280 2890 4110
2021-03-11 03:45 4.40 1520 14400 (1973) 405 (1954) 1830 507 571 831 919 1250 2020 2280 2890 4110
2021-03-11 02:45 4.40 1520 14400 (1973) 405 (1954) 1830 507 571 831 919 1250 2020 2280 2890 4110
2021-03-11 01:45 4.40 1520 14400 (1973) 405 (1954) 1830 507 571 831 919 1250 2020 2280 2890 4110
2021-03-11 00:45 4.40 1520 14400 (1973) 405 (1954) 1830 507 571 831 919 1250 2020 2280 2890 4110

A total of 741 rows are displayed for years 1930 through 2020.